<?xml version="1.0" encoding="UTF-8" standalone="yes"?>
<gpx
 xmlns="http://www.topografix.com/GPX/1/1"
 creator="OziExplorer Version 3956f - http://www.oziexplorer.com"
 version="1.1"
 xmlns:xsi="http://www.w3.org/2001/XMLSchema-instance"
 xsi:schemaLocation="http://www.topografix.com/GPX/1/1 http://www.topografix.com/GPX/1/1/gpx.xsd">
<metadata>
 <time>2021-12-02T18:59:57Z</time>
 <bounds minlat="30.892330" minlon="34.904460" maxlat="30.990290" maxlon="34.985660"/>
</metadata>
<wpt lat="30.9275863" lon="34.9307239">
 <time>2021-12-02T20:58:09.563Z</time>
 <name>1-TATSPIT</name>
 <sym>Flag, Red</sym>
</wpt>
<wpt lat="30.8932161" lon="34.9161756">
 <time>2021-12-02T20:58:09.585Z</time>
 <name>2-TATSPIT2</name>
 <sym>Flag, Red</sym>
</wpt>
<wpt lat="30.9641284" lon="34.9650133">
 <time>2021-12-02T20:58:09.585Z</time>
 <name>3-TATSPIT3</name>
 <sym>Flag, Red</sym>
</wpt>
<trk>
 <name>MahtGadol_New_42 km</name>
 <desc>MahtGadol_New_42 km</desc>
<trkseg>
<trkpt lat="30.9899500" lon="34.9123000">
<ele>452.869995</ele>
<time>2021-12-02T20:58:09.585Z</time>
</trkpt>
<trkpt lat="30.9899600" lon="34.9122600">
<ele>452.540009</ele>
<time>2021-12-02T20:58:09.585Z</time>
</trkpt>
<trkpt lat="30.9899700" lon="34.9122300">
<ele>452.269989</ele>
<time>2021-12-02T20:58:09.585Z</time>
</trkpt>
<trkpt lat="30.9899800" lon="34.9121900">
<ele>452.250000</ele>
<time>2021-12-02T20:58:09.585Z</time>
</trkpt>
<trkpt lat="30.9902000" lon="34.9118500">
<ele>455.739990</ele>
<time>2021-12-02T20:58:09.585Z</time>
</trkpt>
<trkpt lat="30.9902400" lon="34.9118000">
<ele>456.559998</ele>
<time>2021-12-02T20:58:09.585Z</time>
</trkpt>
<trkpt lat="30.9902600" lon="34.9117700">
<ele>457.019989</ele>
<time>2021-12-02T20:58:09.585Z</time>
</trkpt>
<trkpt lat="30.9902800" lon="34.9116900">
<ele>457.880005</ele>
<time>2021-12-02T20:58:09.585Z</time>
</trkpt>
<trkpt lat="30.9902800" lon="34.9116500">
<ele>458.110016</ele>
<time>2021-12-02T20:58:09.585Z</time>
</trkpt>
<trkpt lat="30.9902800" lon="34.9116000">
<ele>458.279999</ele>
<time>2021-12-02T20:58:09.585Z</time>
</trkpt>
<trkpt lat="30.9902800" lon="34.9115500">
<ele>458.460022</ele>
<time>2021-12-02T20:58:09.585Z</time>
</trkpt>
<trkpt lat="30.9902700" lon="34.9115200">
<ele>458.420013</ele>
<time>2021-12-02T20:58:09.585Z</time>
</trkpt>
<trkpt lat="30.9902500" lon="34.9114300">
<ele>458.450012</ele>
<time>2021-12-02T20:58:09.585Z</time>
</trkpt>
<trkpt lat="30.9902100" lon="34.9113600">
<ele>458.290009</ele>
<time>2021-12-02T20:58:09.585Z</time>
</trkpt>
<trkpt lat="30.9901900" lon="34.9113400">
<ele>458.149994</ele>
<time>2021-12-02T20:58:09.585Z</time>
</trkpt>
<trkpt lat="30.9901700" lon="34.9112400">
<ele>458.639984</ele>
<time>2021-12-02T20:58:09.585Z</time>
</trkpt>
<trkpt lat="30.9901600" lon="34.9111700">
<ele>459.000000</ele>
<time>2021-12-02T20:58:09.585Z</time>
</trkpt>
<trkpt lat="30.9901500" lon="34.9110900">
<ele>458.989990</ele>
<time>2021-12-02T20:58:09.585Z</time>
</trkpt>
<trkpt lat="30.9901500" lon="34.9110300">
<ele>458.290009</ele>
<time>2021-12-02T20:58:09.585Z</time>
</trkpt>
<trkpt lat="30.9901600" lon="34.9109700">
<ele>457.699982</ele>
<time>2021-12-02T20:58:09.585Z</time>
</trkpt>
<trkpt lat="30.9901600" lon="34.9108300">
<ele>455.959991</ele>
<time>2021-12-02T20:58:09.585Z</time>
</trkpt>
<trkpt lat="30.9902100" lon="34.9106500">
<ele>453.679993</ele>
<time>2021-12-02T20:58:09.585Z</time>
</trkpt>
<trkpt lat="30.9902400" lon="34.9105700">
<ele>452.469971</ele>
<time>2021-12-02T20:58:09.585Z</time>
</trkpt>
<trkpt lat="30.9902600" lon="34.9104500">
<ele>452.510010</ele>
<time>2021-12-02T20:58:09.585Z</time>
</trkpt>
<trkpt lat="30.9902700" lon="34.9103600">
<ele>452.760010</ele>
<time>2021-12-02T20:58:09.585Z</time>
</trkpt>
<trkpt lat="30.9902800" lon="34.9102000">
<ele>453.549988</ele>
<time>2021-12-02T20:58:09.585Z</time>
</trkpt>
<trkpt lat="30.9902900" lon="34.9099500">
<ele>454.720001</ele>
<time>2021-12-02T20:58:09.585Z</time>
</trkpt>
<trkpt lat="30.9902900" lon="34.9098700">
<ele>454.420013</ele>
<time>2021-12-02T20:58:09.585Z</time>
</trkpt>
<trkpt lat="30.9902900" lon="34.9098100">
<ele>454.200012</ele>
<time>2021-12-02T20:58:09.585Z</time>
</trkpt>
<trkpt lat="30.9902900" lon="34.9097800">
<ele>454.090027</ele>
<time>2021-12-02T20:58:09.585Z</time>
</trkpt>
<trkpt lat="30.9882200" lon="34.9084300">
<ele>464.100006</ele>
<time>2021-12-02T20:58:09.585Z</time>
</trkpt>
<trkpt lat="30.9874900" lon="34.9078600">
<ele>454.380005</ele>
<time>2021-12-02T20:58:09.585Z</time>
</trkpt>
<trkpt lat="30.9869400" lon="34.9072600">
<ele>456.119995</ele>
<time>2021-12-02T20:58:09.585Z</time>
</trkpt>
<trkpt lat="30.9867400" lon="34.9068700">
<ele>457.059998</ele>
<time>2021-12-02T20:58:09.585Z</time>
</trkpt>
<trkpt lat="30.9866400" lon="34.9067800">
<ele>457.589996</ele>
<time>2021-12-02T20:58:09.585Z</time>
</trkpt>
<trkpt lat="30.9865200" lon="34.9065700">
<ele>457.320007</ele>
<time>2021-12-02T20:58:09.585Z</time>
</trkpt>
<trkpt lat="30.9864000" lon="34.9065000">
<ele>457.349976</ele>
<time>2021-12-02T20:58:09.585Z</time>
</trkpt>
<trkpt lat="30.9863100" lon="34.9064100">
<ele>456.000000</ele>
<time>2021-12-02T20:58:09.585Z</time>
</trkpt>
<trkpt lat="30.9862200" lon="34.9063200">
<ele>454.170013</ele>
<time>2021-12-02T20:58:09.585Z</time>
</trkpt>
<trkpt lat="30.9860900" lon="34.9062300">
<ele>451.980011</ele>
<time>2021-12-02T20:58:09.585Z</time>
</trkpt>
<trkpt lat="30.9859900" lon="34.9062000">
<ele>452.369995</ele>
<time>2021-12-02T20:58:09.585Z</time>
</trkpt>
<trkpt lat="30.9858900" lon="34.9061900">
<ele>452.930023</ele>
<time>2021-12-02T20:58:09.585Z</time>
</trkpt>
<trkpt lat="30.9857600" lon="34.9061700">
<ele>453.059998</ele>
<time>2021-12-02T20:58:09.585Z</time>
</trkpt>
<trkpt lat="30.9856900" lon="34.9061700">
<ele>452.910004</ele>
<time>2021-12-02T20:58:09.585Z</time>
</trkpt>
<trkpt lat="30.9855400" lon="34.9061700">
<ele>452.769989</ele>
<time>2021-12-02T20:58:09.585Z</time>
</trkpt>
<trkpt lat="30.9854300" lon="34.9061800">
<ele>453.759979</ele>
<time>2021-12-02T20:58:09.585Z</time>
</trkpt>
<trkpt lat="30.9853600" lon="34.9061900">
<ele>454.359985</ele>
<time>2021-12-02T20:58:09.585Z</time>
</trkpt>
<trkpt lat="30.9853000" lon="34.9062100">
<ele>454.850006</ele>
<time>2021-12-02T20:58:09.585Z</time>
</trkpt>
<trkpt lat="30.9853700" lon="34.9066200">
<ele>460.000000</ele>
<time>2021-12-02T20:58:09.585Z</time>
</trkpt>
<trkpt lat="30.9854900" lon="34.9072300">
<ele>469.000000</ele>
<time>2021-12-02T20:58:09.585Z</time>
</trkpt>
<trkpt lat="30.9865400" lon="34.9085900">
<ele>464.620026</ele>
<time>2021-12-02T20:58:09.585Z</time>
</trkpt>
<trkpt lat="30.9868200" lon="34.9087600">
<ele>462.640015</ele>
<time>2021-12-02T20:58:09.585Z</time>
</trkpt>
<trkpt lat="30.9869900" lon="34.9090500">
<ele>464.100006</ele>
<time>2021-12-02T20:58:09.585Z</time>
</trkpt>
<trkpt lat="30.9869600" lon="34.9090900">
<ele>465.880005</ele>
<time>2021-12-02T20:58:09.585Z</time>
</trkpt>
<trkpt lat="30.9867800" lon="34.9092500">
<ele>469.019989</ele>
<time>2021-12-02T20:58:09.585Z</time>
</trkpt>
<trkpt lat="30.9865600" lon="34.9092600">
<ele>467.720001</ele>
<time>2021-12-02T20:58:09.585Z</time>
</trkpt>
<trkpt lat="30.9863800" lon="34.9092000">
<ele>465.640015</ele>
<time>2021-12-02T20:58:09.585Z</time>
</trkpt>
<trkpt lat="30.9851900" lon="34.9087400">
<ele>450.020020</ele>
<time>2021-12-02T20:58:09.585Z</time>
</trkpt>
<trkpt lat="30.9849800" lon="34.9087700">
<ele>450.910004</ele>
<time>2021-12-02T20:58:09.585Z</time>
</trkpt>
<trkpt lat="30.9846800" lon="34.9088700">
<ele>450.130005</ele>
<time>2021-12-02T20:58:09.585Z</time>
</trkpt>
<trkpt lat="30.9838900" lon="34.9093600">
<ele>452.210022</ele>
<time>2021-12-02T20:58:09.585Z</time>
</trkpt>
<trkpt lat="30.9838500" lon="34.9094100">
<ele>451.760010</ele>
<time>2021-12-02T20:58:09.585Z</time>
</trkpt>
<trkpt lat="30.9834000" lon="34.9100200">
<ele>451.679993</ele>
<time>2021-12-02T20:58:09.585Z</time>
</trkpt>
<trkpt lat="30.9830300" lon="34.9104400">
<ele>449.790009</ele>
<time>2021-12-02T20:58:09.585Z</time>
</trkpt>
<trkpt lat="30.9825900" lon="34.9109300">
<ele>448.959991</ele>
<time>2021-12-02T20:58:09.585Z</time>
</trkpt>
<trkpt lat="30.9825200" lon="34.9109600">
<ele>449.229980</ele>
<time>2021-12-02T20:58:09.585Z</time>
</trkpt>
<trkpt lat="30.9823700" lon="34.9110000">
<ele>450.589996</ele>
<time>2021-12-02T20:58:09.585Z</time>
</trkpt>
<trkpt lat="30.9823000" lon="34.9110900">
<ele>451.040009</ele>
<time>2021-12-02T20:58:09.585Z</time>
</trkpt>
<trkpt lat="30.9820800" lon="34.9111000">
<ele>450.119995</ele>
<time>2021-12-02T20:58:09.585Z</time>
</trkpt>
<trkpt lat="30.9813600" lon="34.9111000">
<ele>450.869995</ele>
<time>2021-12-02T20:58:09.585Z</time>
</trkpt>
<trkpt lat="30.9812100" lon="34.9110800">
<ele>454.080017</ele>
<time>2021-12-02T20:58:09.585Z</time>
</trkpt>
<trkpt lat="30.9811500" lon="34.9110400">
<ele>456.160004</ele>
<time>2021-12-02T20:58:09.585Z</time>
</trkpt>
<trkpt lat="30.9802400" lon="34.9108400">
<ele>456.989990</ele>
<time>2021-12-02T20:58:09.585Z</time>
</trkpt>
<trkpt lat="30.9801700" lon="34.9108400">
<ele>457.229980</ele>
<time>2021-12-02T20:58:09.585Z</time>
</trkpt>
<trkpt lat="30.9797100" lon="34.9108700">
<ele>459.530029</ele>
<time>2021-12-02T20:58:09.585Z</time>
</trkpt>
<trkpt lat="30.9791100" lon="34.9111200">
<ele>461.339996</ele>
<time>2021-12-02T20:58:09.585Z</time>
</trkpt>
<trkpt lat="30.9788600" lon="34.9112800">
<ele>461.220001</ele>
<time>2021-12-02T20:58:09.585Z</time>
</trkpt>
<trkpt lat="30.9786100" lon="34.9119100">
<ele>455.489990</ele>
<time>2021-12-02T20:58:09.585Z</time>
</trkpt>
<trkpt lat="30.9782800" lon="34.9123100">
<ele>455.710022</ele>
<time>2021-12-02T20:58:09.585Z</time>
</trkpt>
<trkpt lat="30.9782400" lon="34.9123700">
<ele>457.829987</ele>
<time>2021-12-02T20:58:09.585Z</time>
</trkpt>
<trkpt lat="30.9782100" lon="34.9123800">
<ele>458.649994</ele>
<time>2021-12-02T20:58:09.585Z</time>
</trkpt>
<trkpt lat="30.9781500" lon="34.9123900">
<ele>460.040009</ele>
<time>2021-12-02T20:58:09.585Z</time>
</trkpt>
<trkpt lat="30.9780400" lon="34.9123800">
<ele>462.520020</ele>
<time>2021-12-02T20:58:09.585Z</time>
</trkpt>
<trkpt lat="30.9777800" lon="34.9123100">
<ele>470.199982</ele>
<time>2021-12-02T20:58:09.585Z</time>
</trkpt>
<trkpt lat="30.9773900" lon="34.9122500">
<ele>481.769989</ele>
<time>2021-12-02T20:58:09.585Z</time>
</trkpt>
<trkpt lat="30.9770500" lon="34.9121300">
<ele>482.390015</ele>
<time>2021-12-02T20:58:09.585Z</time>
</trkpt>
<trkpt lat="30.9769400" lon="34.9120900">
<ele>480.720001</ele>
<time>2021-12-02T20:58:09.585Z</time>
</trkpt>
<trkpt lat="30.9766300" lon="34.9118800">
<ele>476.730011</ele>
<time>2021-12-02T20:58:09.585Z</time>
</trkpt>
<trkpt lat="30.9761100" lon="34.9116800">
<ele>483.039978</ele>
<time>2021-12-02T20:58:09.585Z</time>
</trkpt>
<trkpt lat="30.9759400" lon="34.9116200">
<ele>481.260010</ele>
<time>2021-12-02T20:58:09.585Z</time>
</trkpt>
<trkpt lat="30.9759100" lon="34.9114800">
<ele>481.309998</ele>
<time>2021-12-02T20:58:09.585Z</time>
</trkpt>
<trkpt lat="30.9758800" lon="34.9113500">
<ele>481.100006</ele>
<time>2021-12-02T20:58:09.585Z</time>
</trkpt>
<trkpt lat="30.9758400" lon="34.9112800">
<ele>480.619995</ele>
<time>2021-12-02T20:58:09.585Z</time>
</trkpt>
<trkpt lat="30.9757500" lon="34.9111400">
<ele>479.500000</ele>
<time>2021-12-02T20:58:09.585Z</time>
</trkpt>
<trkpt lat="30.9757000" lon="34.9110900">
<ele>478.620026</ele>
<time>2021-12-02T20:58:09.585Z</time>
</trkpt>
<trkpt lat="30.9755400" lon="34.9109000">
<ele>474.880005</ele>
<time>2021-12-02T20:58:09.585Z</time>
</trkpt>
<trkpt lat="30.9753300" lon="34.9107400">
<ele>471.890015</ele>
<time>2021-12-02T20:58:09.585Z</time>
</trkpt>
<trkpt lat="30.9751200" lon="34.9106000">
<ele>471.090027</ele>
<time>2021-12-02T20:58:09.585Z</time>
</trkpt>
<trkpt lat="30.9750500" lon="34.9105400">
<ele>471.829987</ele>
<time>2021-12-02T20:58:09.585Z</time>
</trkpt>
<trkpt lat="30.9747500" lon="34.9103200">
<ele>467.100006</ele>
<time>2021-12-02T20:58:09.585Z</time>
</trkpt>
<trkpt lat="30.9746200" lon="34.9102700">
<ele>464.869995</ele>
<time>2021-12-02T20:58:09.585Z</time>
</trkpt>
<trkpt lat="30.9745400" lon="34.9101900">
<ele>463.720001</ele>
<time>2021-12-02T20:58:09.585Z</time>
</trkpt>
<trkpt lat="30.9744900" lon="34.9100100">
<ele>462.529968</ele>
<time>2021-12-02T20:58:09.585Z</time>
</trkpt>
<trkpt lat="30.9743800" lon="34.9100400">
<ele>462.610016</ele>
<time>2021-12-02T20:58:09.585Z</time>
</trkpt>
<trkpt lat="30.9740700" lon="34.9101500">
<ele>464.600006</ele>
<time>2021-12-02T20:58:09.585Z</time>
</trkpt>
<trkpt lat="30.9734900" lon="34.9104400">
<ele>470.260010</ele>
<time>2021-12-02T20:58:09.585Z</time>
</trkpt>
<trkpt lat="30.9734300" lon="34.9104300">
<ele>471.600006</ele>
<time>2021-12-02T20:58:09.585Z</time>
</trkpt>
<trkpt lat="30.9733600" lon="34.9102900">
<ele>473.889984</ele>
<time>2021-12-02T20:58:09.585Z</time>
</trkpt>
<trkpt lat="30.9731100" lon="34.9097300">
<ele>479.739990</ele>
<time>2021-12-02T20:58:09.585Z</time>
</trkpt>
<trkpt lat="30.9728600" lon="34.9093200">
<ele>481.320007</ele>
<time>2021-12-02T20:58:09.585Z</time>
</trkpt>
<trkpt lat="30.9725100" lon="34.9084900">
<ele>481.879974</ele>
<time>2021-12-02T20:58:09.585Z</time>
</trkpt>
<trkpt lat="30.9723200" lon="34.9082400">
<ele>484.190002</ele>
<time>2021-12-02T20:58:09.585Z</time>
</trkpt>
<trkpt lat="30.9722000" lon="34.9081300">
<ele>486.279999</ele>
<time>2021-12-02T20:58:09.585Z</time>
</trkpt>
<trkpt lat="30.9716400" lon="34.9076300">
<ele>489.199982</ele>
<time>2021-12-02T20:58:09.585Z</time>
</trkpt>
<trkpt lat="30.9708500" lon="34.9068900">
<ele>484.860016</ele>
<time>2021-12-02T20:58:09.585Z</time>
</trkpt>
<trkpt lat="30.9703700" lon="34.9066000">
<ele>485.929993</ele>
<time>2021-12-02T20:58:09.585Z</time>
</trkpt>
<trkpt lat="30.9703000" lon="34.9065400">
<ele>485.550018</ele>
<time>2021-12-02T20:58:09.585Z</time>
</trkpt>
<trkpt lat="30.9696700" lon="34.9059100">
<ele>477.640015</ele>
<time>2021-12-02T20:58:09.585Z</time>
</trkpt>
<trkpt lat="30.9692800" lon="34.9055900">
<ele>470.570007</ele>
<time>2021-12-02T20:58:09.585Z</time>
</trkpt>
<trkpt lat="30.9691800" lon="34.9054700">
<ele>468.560028</ele>
<time>2021-12-02T20:58:09.585Z</time>
</trkpt>
<trkpt lat="30.9687900" lon="34.9050900">
<ele>472.169983</ele>
<time>2021-12-02T20:58:09.585Z</time>
</trkpt>
<trkpt lat="30.9683100" lon="34.9046800">
<ele>477.589996</ele>
<time>2021-12-02T20:58:09.585Z</time>
</trkpt>
<trkpt lat="30.9681000" lon="34.9045600">
<ele>475.620026</ele>
<time>2021-12-02T20:58:09.585Z</time>
</trkpt>
<trkpt lat="30.9678500" lon="34.9044700">
<ele>475.700012</ele>
<time>2021-12-02T20:58:09.585Z</time>
</trkpt>
<trkpt lat="30.9678000" lon="34.9044600">
<ele>476.040009</ele>
<time>2021-12-02T20:58:09.585Z</time>
</trkpt>
<trkpt lat="30.9676900" lon="34.9044800">
<ele>476.600006</ele>
<time>2021-12-02T20:58:09.585Z</time>
</trkpt>
<trkpt lat="30.9674300" lon="34.9046100">
<ele>477.269989</ele>
<time>2021-12-02T20:58:09.585Z</time>
</trkpt>
<trkpt lat="30.9669400" lon="34.9047900">
<ele>476.059998</ele>
<time>2021-12-02T20:58:09.585Z</time>
</trkpt>
<trkpt lat="30.9666600" lon="34.9049900">
<ele>483.070007</ele>
<time>2021-12-02T20:58:09.585Z</time>
</trkpt>
<trkpt lat="30.9664100" lon="34.9053600">
<ele>489.700012</ele>
<time>2021-12-02T20:58:09.585Z</time>
</trkpt>
<trkpt lat="30.9657900" lon="34.9056900">
<ele>487.429993</ele>
<time>2021-12-02T20:58:09.585Z</time>
</trkpt>
<trkpt lat="30.9656000" lon="34.9059100">
<ele>483.399994</ele>
<time>2021-12-02T20:58:09.585Z</time>
</trkpt>
<trkpt lat="30.9649500" lon="34.9064600">
<ele>483.049988</ele>
<time>2021-12-02T20:58:09.585Z</time>
</trkpt>
<trkpt lat="30.9649000" lon="34.9065900">
<ele>481.470001</ele>
<time>2021-12-02T20:58:09.585Z</time>
</trkpt>
<trkpt lat="30.9645600" lon="34.9068900">
<ele>478.979980</ele>
<time>2021-12-02T20:58:09.585Z</time>
</trkpt>
<trkpt lat="30.9644100" lon="34.9072200">
<ele>479.369995</ele>
<time>2021-12-02T20:58:09.585Z</time>
</trkpt>
<trkpt lat="30.9643700" lon="34.9075100">
<ele>478.390015</ele>
<time>2021-12-02T20:58:09.585Z</time>
</trkpt>
<trkpt lat="30.9643300" lon="34.9075300">
<ele>477.959991</ele>
<time>2021-12-02T20:58:09.585Z</time>
</trkpt>
<trkpt lat="30.9638300" lon="34.9074700">
<ele>473.879974</ele>
<time>2021-12-02T20:58:09.585Z</time>
</trkpt>
<trkpt lat="30.9634000" lon="34.9074800">
<ele>479.480011</ele>
<time>2021-12-02T20:58:09.585Z</time>
</trkpt>
<trkpt lat="30.9627200" lon="34.9071000">
<ele>482.649994</ele>
<time>2021-12-02T20:58:09.585Z</time>
</trkpt>
<trkpt lat="30.9623500" lon="34.9070700">
<ele>488.229980</ele>
<time>2021-12-02T20:58:09.585Z</time>
</trkpt>
<trkpt lat="30.9621500" lon="34.9070900">
<ele>490.539978</ele>
<time>2021-12-02T20:58:09.585Z</time>
</trkpt>
<trkpt lat="30.9620800" lon="34.9072000">
<ele>490.999969</ele>
<time>2021-12-02T20:58:09.585Z</time>
</trkpt>
<trkpt lat="30.9619400" lon="34.9073100">
<ele>490.699982</ele>
<time>2021-12-02T20:58:09.585Z</time>
</trkpt>
<trkpt lat="30.9616100" lon="34.9073000">
<ele>491.250000</ele>
<time>2021-12-02T20:58:09.585Z</time>
</trkpt>
<trkpt lat="30.9606800" lon="34.9075300">
<ele>485.279999</ele>
<time>2021-12-02T20:58:09.585Z</time>
</trkpt>
<trkpt lat="30.9601700" lon="34.9077500">
<ele>486.490021</ele>
<time>2021-12-02T20:58:09.585Z</time>
</trkpt>
<trkpt lat="30.9589200" lon="34.9080200">
<ele>499.890015</ele>
<time>2021-12-02T20:58:09.585Z</time>
</trkpt>
<trkpt lat="30.9585800" lon="34.9081600">
<ele>508.549988</ele>
<time>2021-12-02T20:58:09.585Z</time>
</trkpt>
<trkpt lat="30.9581600" lon="34.9082200">
<ele>511.600006</ele>
<time>2021-12-02T20:58:09.585Z</time>
</trkpt>
<trkpt lat="30.9578000" lon="34.9083300">
<ele>509.180023</ele>
<time>2021-12-02T20:58:09.585Z</time>
</trkpt>
<trkpt lat="30.9572300" lon="34.9083500">
<ele>513.070007</ele>
<time>2021-12-02T20:58:09.585Z</time>
</trkpt>
<trkpt lat="30.9567300" lon="34.9083400">
<ele>522.109985</ele>
<time>2021-12-02T20:58:09.585Z</time>
</trkpt>
<trkpt lat="30.9563700" lon="34.9083700">
<ele>526.130005</ele>
<time>2021-12-02T20:58:09.585Z</time>
</trkpt>
<trkpt lat="30.9561300" lon="34.9083600">
<ele>527.770020</ele>
<time>2021-12-02T20:58:09.585Z</time>
</trkpt>
<trkpt lat="30.9553100" lon="34.9083700">
<ele>538.989990</ele>
<time>2021-12-02T20:58:09.585Z</time>
</trkpt>
<trkpt lat="30.9550400" lon="34.9084800">
<ele>544.380005</ele>
<time>2021-12-02T20:58:09.585Z</time>
</trkpt>
<trkpt lat="30.9549100" lon="34.9086100">
<ele>546.340027</ele>
<time>2021-12-02T20:58:09.585Z</time>
</trkpt>
<trkpt lat="30.9546700" lon="34.9086600">
<ele>546.159973</ele>
<time>2021-12-02T20:58:09.585Z</time>
</trkpt>
<trkpt lat="30.9544300" lon="34.9087400">
<ele>548.140015</ele>
<time>2021-12-02T20:58:09.585Z</time>
</trkpt>
<trkpt lat="30.9538500" lon="34.9086800">
<ele>556.200012</ele>
<time>2021-12-02T20:58:09.585Z</time>
</trkpt>
<trkpt lat="30.9533700" lon="34.9087700">
<ele>551.380005</ele>
<time>2021-12-02T20:58:09.585Z</time>
</trkpt>
<trkpt lat="30.9530800" lon="34.9090200">
<ele>544.710022</ele>
<time>2021-12-02T20:58:09.585Z</time>
</trkpt>
<trkpt lat="30.9526200" lon="34.9092200">
<ele>543.080017</ele>
<time>2021-12-02T20:58:09.585Z</time>
</trkpt>
<trkpt lat="30.9521300" lon="34.9092400">
<ele>529.539978</ele>
<time>2021-12-02T20:58:09.585Z</time>
</trkpt>
<trkpt lat="30.9515200" lon="34.9093400">
<ele>520.750000</ele>
<time>2021-12-02T20:58:09.585Z</time>
</trkpt>
<trkpt lat="30.9507900" lon="34.9092600">
<ele>545.539978</ele>
<time>2021-12-02T20:58:09.585Z</time>
</trkpt>
<trkpt lat="30.9506800" lon="34.9092800">
<ele>547.330017</ele>
<time>2021-12-02T20:58:09.585Z</time>
</trkpt>
<trkpt lat="30.9505500" lon="34.9093700">
<ele>547.059998</ele>
<time>2021-12-02T20:58:09.585Z</time>
</trkpt>
<trkpt lat="30.9498300" lon="34.9094400">
<ele>552.690002</ele>
<time>2021-12-02T20:58:09.585Z</time>
</trkpt>
<trkpt lat="30.9494600" lon="34.9096300">
<ele>558.070007</ele>
<time>2021-12-02T20:58:09.585Z</time>
</trkpt>
<trkpt lat="30.9494300" lon="34.9097100">
<ele>559.070007</ele>
<time>2021-12-02T20:58:09.585Z</time>
</trkpt>
<trkpt lat="30.9492300" lon="34.9102200">
<ele>562.450012</ele>
<time>2021-12-02T20:58:09.585Z</time>
</trkpt>
<trkpt lat="30.9490100" lon="34.9104900">
<ele>564.000000</ele>
<time>2021-12-02T20:58:09.585Z</time>
</trkpt>
<trkpt lat="30.9485000" lon="34.9107600">
<ele>563.080017</ele>
<time>2021-12-02T20:58:09.585Z</time>
</trkpt>
<trkpt lat="30.9474600" lon="34.9110700">
<ele>552.340027</ele>
<time>2021-12-02T20:58:09.585Z</time>
</trkpt>
<trkpt lat="30.9471900" lon="34.9113300">
<ele>549.640015</ele>
<time>2021-12-02T20:58:09.585Z</time>
</trkpt>
<trkpt lat="30.9470400" lon="34.9113700">
<ele>553.280029</ele>
<time>2021-12-02T20:58:09.585Z</time>
</trkpt>
<trkpt lat="30.9466700" lon="34.9116400">
<ele>565.070007</ele>
<time>2021-12-02T20:58:09.585Z</time>
</trkpt>
<trkpt lat="30.9459100" lon="34.9117600">
<ele>567.400024</ele>
<time>2021-12-02T20:58:09.585Z</time>
</trkpt>
<trkpt lat="30.9456000" lon="34.9118900">
<ele>573.320007</ele>
<time>2021-12-02T20:58:09.585Z</time>
</trkpt>
<trkpt lat="30.9453800" lon="34.9119400">
<ele>578.100037</ele>
<time>2021-12-02T20:58:09.585Z</time>
</trkpt>
<trkpt lat="30.9452000" lon="34.9119200">
<ele>579.650024</ele>
<time>2021-12-02T20:58:09.585Z</time>
</trkpt>
<trkpt lat="30.9450400" lon="34.9117400">
<ele>577.059998</ele>
<time>2021-12-02T20:58:09.585Z</time>
</trkpt>
<trkpt lat="30.9445700" lon="34.9112500">
<ele>566.729980</ele>
<time>2021-12-02T20:58:09.585Z</time>
</trkpt>
<trkpt lat="30.9443600" lon="34.9111600">
<ele>566.380005</ele>
<time>2021-12-02T20:58:09.585Z</time>
</trkpt>
<trkpt lat="30.9441800" lon="34.9113100">
<ele>569.200012</ele>
<time>2021-12-02T20:58:09.585Z</time>
</trkpt>
<trkpt lat="30.9440500" lon="34.9116300">
<ele>571.289978</ele>
<time>2021-12-02T20:58:09.585Z</time>
</trkpt>
<trkpt lat="30.9439200" lon="34.9117900">
<ele>572.760010</ele>
<time>2021-12-02T20:58:09.585Z</time>
</trkpt>
<trkpt lat="30.9437800" lon="34.9123800">
<ele>575.909973</ele>
<time>2021-12-02T20:58:09.585Z</time>
</trkpt>
<trkpt lat="30.9435600" lon="34.9126800">
<ele>571.880005</ele>
<time>2021-12-02T20:58:09.585Z</time>
</trkpt>
<trkpt lat="30.9424900" lon="34.9134300">
<ele>568.000000</ele>
<time>2021-12-02T20:58:09.585Z</time>
</trkpt>
<trkpt lat="30.9418400" lon="34.9142400">
<ele>564.239990</ele>
<time>2021-12-02T20:58:09.585Z</time>
</trkpt>
<trkpt lat="30.9412600" lon="34.9148200">
<ele>556.559998</ele>
<time>2021-12-02T20:58:09.585Z</time>
</trkpt>
<trkpt lat="30.9411600" lon="34.9150100">
<ele>555.639954</ele>
<time>2021-12-02T20:58:09.585Z</time>
</trkpt>
<trkpt lat="30.9409200" lon="34.9151500">
<ele>557.200012</ele>
<time>2021-12-02T20:58:09.585Z</time>
</trkpt>
<trkpt lat="30.9407600" lon="34.9152800">
<ele>557.539978</ele>
<time>2021-12-02T20:58:09.585Z</time>
</trkpt>
<trkpt lat="30.9404600" lon="34.9157300">
<ele>559.760010</ele>
<time>2021-12-02T20:58:09.585Z</time>
</trkpt>
<trkpt lat="30.9399400" lon="34.9162700">
<ele>569.160034</ele>
<time>2021-12-02T20:58:09.585Z</time>
</trkpt>
<trkpt lat="30.9398800" lon="34.9164800">
<ele>571.510010</ele>
<time>2021-12-02T20:58:09.585Z</time>
</trkpt>
<trkpt lat="30.9397900" lon="34.9164800">
<ele>572.160034</ele>
<time>2021-12-02T20:58:09.585Z</time>
</trkpt>
<trkpt lat="30.9394300" lon="34.9169300">
<ele>574.739990</ele>
<time>2021-12-02T20:58:09.585Z</time>
</trkpt>
<trkpt lat="30.9384600" lon="34.9177300">
<ele>557.450012</ele>
<time>2021-12-02T20:58:09.585Z</time>
</trkpt>
<trkpt lat="30.9383400" lon="34.9179200">
<ele>557.720032</ele>
<time>2021-12-02T20:58:09.585Z</time>
</trkpt>
<trkpt lat="30.9380500" lon="34.9181900">
<ele>559.029968</ele>
<time>2021-12-02T20:58:09.585Z</time>
</trkpt>
<trkpt lat="30.9377600" lon="34.9186700">
<ele>569.539978</ele>
<time>2021-12-02T20:58:09.585Z</time>
</trkpt>
<trkpt lat="30.9375800" lon="34.9193500">
<ele>573.849976</ele>
<time>2021-12-02T20:58:09.585Z</time>
</trkpt>
<trkpt lat="30.9373400" lon="34.9197800">
<ele>573.709961</ele>
<time>2021-12-02T20:58:09.585Z</time>
</trkpt>
<trkpt lat="30.9370100" lon="34.9201200">
<ele>572.200012</ele>
<time>2021-12-02T20:58:09.585Z</time>
</trkpt>
<trkpt lat="30.9367900" lon="34.9202000">
<ele>572.280029</ele>
<time>2021-12-02T20:58:09.585Z</time>
</trkpt>
<trkpt lat="30.9362200" lon="34.9206800">
<ele>574.320007</ele>
<time>2021-12-02T20:58:09.585Z</time>
</trkpt>
<trkpt lat="30.9359500" lon="34.9210000">
<ele>577.850037</ele>
<time>2021-12-02T20:58:09.585Z</time>
</trkpt>
<trkpt lat="30.9354300" lon="34.9212500">
<ele>581.049988</ele>
<time>2021-12-02T20:58:09.585Z</time>
</trkpt>
<trkpt lat="30.9349100" lon="34.9216200">
<ele>582.929993</ele>
<time>2021-12-02T20:58:09.585Z</time>
</trkpt>
<trkpt lat="30.9346600" lon="34.9215800">
<ele>576.230042</ele>
<time>2021-12-02T20:58:09.585Z</time>
</trkpt>
<trkpt lat="30.9344700" lon="34.9217200">
<ele>575.919983</ele>
<time>2021-12-02T20:58:09.585Z</time>
</trkpt>
<trkpt lat="30.9335700" lon="34.9218100">
<ele>573.149963</ele>
<time>2021-12-02T20:58:09.585Z</time>
</trkpt>
<trkpt lat="30.9329800" lon="34.9220100">
<ele>577.440002</ele>
<time>2021-12-02T20:58:09.585Z</time>
</trkpt>
<trkpt lat="30.9325800" lon="34.9224000">
<ele>584.479980</ele>
<time>2021-12-02T20:58:09.585Z</time>
</trkpt>
<trkpt lat="30.9322400" lon="34.9224700">
<ele>577.320007</ele>
<time>2021-12-02T20:58:09.585Z</time>
</trkpt>
<trkpt lat="30.9313400" lon="34.9228600">
<ele>581.369995</ele>
<time>2021-12-02T20:58:09.585Z</time>
</trkpt>
<trkpt lat="30.9310000" lon="34.9229200">
<ele>585.090027</ele>
<time>2021-12-02T20:58:09.585Z</time>
</trkpt>
<trkpt lat="30.9308000" lon="34.9228900">
<ele>587.660034</ele>
<time>2021-12-02T20:58:09.585Z</time>
</trkpt>
<trkpt lat="30.9307000" lon="34.9230500">
<ele>590.450012</ele>
<time>2021-12-02T20:58:09.585Z</time>
</trkpt>
<trkpt lat="30.9303700" lon="34.9232600">
<ele>591.179993</ele>
<time>2021-12-02T20:58:09.585Z</time>
</trkpt>
<trkpt lat="30.9302900" lon="34.9232800">
<ele>590.400024</ele>
<time>2021-12-02T20:58:09.585Z</time>
</trkpt>
<trkpt lat="30.9300600" lon="34.9233000">
<ele>585.500000</ele>
<time>2021-12-02T20:58:09.585Z</time>
</trkpt>
<trkpt lat="30.9299500" lon="34.9232900">
<ele>584.119995</ele>
<time>2021-12-02T20:58:09.585Z</time>
</trkpt>
<trkpt lat="30.9298400" lon="34.9233100">
<ele>583.750000</ele>
<time>2021-12-02T20:58:09.585Z</time>
</trkpt>
<trkpt lat="30.9298100" lon="34.9233600">
<ele>583.570007</ele>
<time>2021-12-02T20:58:09.585Z</time>
</trkpt>
<trkpt lat="30.9292200" lon="34.9237200">
<ele>585.539978</ele>
<time>2021-12-02T20:58:09.585Z</time>
</trkpt>
<trkpt lat="30.9291700" lon="34.9238000">
<ele>585.700012</ele>
<time>2021-12-02T20:58:09.585Z</time>
</trkpt>
<trkpt lat="30.9290600" lon="34.9243500">
<ele>589.710022</ele>
<time>2021-12-02T20:58:09.585Z</time>
</trkpt>
<trkpt lat="30.9289600" lon="34.9251300">
<ele>595.660034</ele>
<time>2021-12-02T20:58:09.585Z</time>
</trkpt>
<trkpt lat="30.9286900" lon="34.9255300">
<ele>591.320007</ele>
<time>2021-12-02T20:58:09.585Z</time>
</trkpt>
<trkpt lat="30.9286200" lon="34.9256900">
<ele>589.799988</ele>
<time>2021-12-02T20:58:09.585Z</time>
</trkpt>
<trkpt lat="30.9282700" lon="34.9260100">
<ele>589.080017</ele>
<time>2021-12-02T20:58:09.585Z</time>
</trkpt>
<trkpt lat="30.9282500" lon="34.9260900">
<ele>589.589966</ele>
<time>2021-12-02T20:58:09.585Z</time>
</trkpt>
<trkpt lat="30.9282500" lon="34.9263000">
<ele>592.250000</ele>
<time>2021-12-02T20:58:09.585Z</time>
</trkpt>
<trkpt lat="30.9281400" lon="34.9273400">
<ele>605.359985</ele>
<time>2021-12-02T20:58:09.585Z</time>
</trkpt>
<trkpt lat="30.9281000" lon="34.9280900">
<ele>607.869995</ele>
<time>2021-12-02T20:58:09.585Z</time>
</trkpt>
<trkpt lat="30.9278800" lon="34.9290200">
<ele>613.799988</ele>
<time>2021-12-02T20:58:09.585Z</time>
</trkpt>
<trkpt lat="30.9277700" lon="34.9293500">
<ele>615.590027</ele>
<time>2021-12-02T20:58:09.585Z</time>
</trkpt>
<trkpt lat="30.9277600" lon="34.9298600">
<ele>618.859985</ele>
<time>2021-12-02T20:58:09.585Z</time>
</trkpt>
<trkpt lat="30.9276700" lon="34.9306900">
<ele>627.739990</ele>
<time>2021-12-02T20:58:09.585Z</time>
</trkpt>
<trkpt lat="30.9277600" lon="34.9298600">
<ele>618.859985</ele>
<time>2021-12-02T20:58:09.585Z</time>
</trkpt>
<trkpt lat="30.9277700" lon="34.9293500">
<ele>615.590027</ele>
<time>2021-12-02T20:58:09.585Z</time>
</trkpt>
<trkpt lat="30.9278800" lon="34.9290200">
<ele>613.799988</ele>
<time>2021-12-02T20:58:09.585Z</time>
</trkpt>
<trkpt lat="30.9281000" lon="34.9280900">
<ele>607.869995</ele>
<time>2021-12-02T20:58:09.585Z</time>
</trkpt>
<trkpt lat="30.9281400" lon="34.9273400">
<ele>605.359985</ele>
<time>2021-12-02T20:58:09.585Z</time>
</trkpt>
<trkpt lat="30.9282500" lon="34.9263000">
<ele>592.250000</ele>
<time>2021-12-02T20:58:09.585Z</time>
</trkpt>
<trkpt lat="30.9282500" lon="34.9260900">
<ele>589.589966</ele>
<time>2021-12-02T20:58:09.585Z</time>
</trkpt>
<trkpt lat="30.9282700" lon="34.9260100">
<ele>589.080017</ele>
<time>2021-12-02T20:58:09.585Z</time>
</trkpt>
<trkpt lat="30.9286200" lon="34.9256900">
<ele>589.799988</ele>
<time>2021-12-02T20:58:09.585Z</time>
</trkpt>
<trkpt lat="30.9286900" lon="34.9255300">
<ele>591.320007</ele>
<time>2021-12-02T20:58:09.585Z</time>
</trkpt>
<trkpt lat="30.9289600" lon="34.9251300">
<ele>595.660034</ele>
<time>2021-12-02T20:58:09.585Z</time>
</trkpt>
<trkpt lat="30.9290600" lon="34.9243500">
<ele>589.710022</ele>
<time>2021-12-02T20:58:09.585Z</time>
</trkpt>
<trkpt lat="30.9291700" lon="34.9238000">
<ele>585.700012</ele>
<time>2021-12-02T20:58:09.585Z</time>
</trkpt>
<trkpt lat="30.9292200" lon="34.9237200">
<ele>585.539978</ele>
<time>2021-12-02T20:58:09.585Z</time>
</trkpt>
<trkpt lat="30.9298100" lon="34.9233600">
<ele>583.570007</ele>
<time>2021-12-02T20:58:09.585Z</time>
</trkpt>
<trkpt lat="30.9298400" lon="34.9233100">
<ele>583.750000</ele>
<time>2021-12-02T20:58:09.585Z</time>
</trkpt>
<trkpt lat="30.9299500" lon="34.9232900">
<ele>584.119995</ele>
<time>2021-12-02T20:58:09.585Z</time>
</trkpt>
<trkpt lat="30.9300600" lon="34.9233000">
<ele>585.500000</ele>
<time>2021-12-02T20:58:09.585Z</time>
</trkpt>
<trkpt lat="30.9302900" lon="34.9232800">
<ele>590.400024</ele>
<time>2021-12-02T20:58:09.585Z</time>
</trkpt>
<trkpt lat="30.9303800" lon="34.9232600">
<ele>591.320007</ele>
<time>2021-12-02T20:58:09.585Z</time>
</trkpt>
<trkpt lat="30.9306500" lon="34.9230500">
<ele>590.289978</ele>
<time>2021-12-02T20:58:09.585Z</time>
</trkpt>
<trkpt lat="30.9307400" lon="34.9228600">
<ele>587.619995</ele>
<time>2021-12-02T20:58:09.585Z</time>
</trkpt>
<trkpt lat="30.9305800" lon="34.9227900">
<ele>588.710022</ele>
<time>2021-12-02T20:58:09.585Z</time>
</trkpt>
<trkpt lat="30.9301300" lon="34.9227800">
<ele>590.559998</ele>
<time>2021-12-02T20:58:09.585Z</time>
</trkpt>
<trkpt lat="30.9295700" lon="34.9224500">
<ele>607.909973</ele>
<time>2021-12-02T20:58:09.585Z</time>
</trkpt>
<trkpt lat="30.9293300" lon="34.9224200">
<ele>609.609985</ele>
<time>2021-12-02T20:58:09.585Z</time>
</trkpt>
<trkpt lat="30.9291100" lon="34.9223000">
<ele>611.570007</ele>
<time>2021-12-02T20:58:09.585Z</time>
</trkpt>
<trkpt lat="30.9288100" lon="34.9220600">
<ele>616.529968</ele>
<time>2021-12-02T20:58:09.585Z</time>
</trkpt>
<trkpt lat="30.9285000" lon="34.9219000">
<ele>623.260010</ele>
<time>2021-12-02T20:58:09.585Z</time>
</trkpt>
<trkpt lat="30.9284800" lon="34.9218200">
<ele>624.040039</ele>
<time>2021-12-02T20:58:09.585Z</time>
</trkpt>
<trkpt lat="30.9283500" lon="34.9213600">
<ele>628.960022</ele>
<time>2021-12-02T20:58:09.585Z</time>
</trkpt>
<trkpt lat="30.9279700" lon="34.9211400">
<ele>623.039978</ele>
<time>2021-12-02T20:58:09.585Z</time>
</trkpt>
<trkpt lat="30.9279500" lon="34.9210600">
<ele>622.339966</ele>
<time>2021-12-02T20:58:09.585Z</time>
</trkpt>
<trkpt lat="30.9279100" lon="34.9209700">
<ele>621.369995</ele>
<time>2021-12-02T20:58:09.585Z</time>
</trkpt>
<trkpt lat="30.9279400" lon="34.9208400">
<ele>621.520020</ele>
<time>2021-12-02T20:58:09.585Z</time>
</trkpt>
<trkpt lat="30.9279600" lon="34.9202000">
<ele>622.559998</ele>
<time>2021-12-02T20:58:09.585Z</time>
</trkpt>
<trkpt lat="30.9278700" lon="34.9196800">
<ele>619.690002</ele>
<time>2021-12-02T20:58:09.585Z</time>
</trkpt>
<trkpt lat="30.9279000" lon="34.9191800">
<ele>618.959961</ele>
<time>2021-12-02T20:58:09.585Z</time>
</trkpt>
<trkpt lat="30.9278700" lon="34.9190500">
<ele>618.549988</ele>
<time>2021-12-02T20:58:09.585Z</time>
</trkpt>
<trkpt lat="30.9276200" lon="34.9188200">
<ele>611.960022</ele>
<time>2021-12-02T20:58:09.585Z</time>
</trkpt>
<trkpt lat="30.9275500" lon="34.9185000">
<ele>609.380005</ele>
<time>2021-12-02T20:58:09.585Z</time>
</trkpt>
<trkpt lat="30.9275900" lon="34.9181300">
<ele>612.549988</ele>
<time>2021-12-02T20:58:09.585Z</time>
</trkpt>
<trkpt lat="30.9275300" lon="34.9176700">
<ele>609.679993</ele>
<time>2021-12-02T20:58:09.585Z</time>
</trkpt>
<trkpt lat="30.9275700" lon="34.9172700">
<ele>604.679993</ele>
<time>2021-12-02T20:58:09.585Z</time>
</trkpt>
<trkpt lat="30.9275800" lon="34.9170100">
<ele>602.690002</ele>
<time>2021-12-02T20:58:09.585Z</time>
</trkpt>
<trkpt lat="30.9275000" lon="34.9163600">
<ele>596.000000</ele>
<time>2021-12-02T20:58:09.585Z</time>
</trkpt>
<trkpt lat="30.9272900" lon="34.9158700">
<ele>592.110046</ele>
<time>2021-12-02T20:58:09.585Z</time>
</trkpt>
<trkpt lat="30.9272300" lon="34.9158600">
<ele>591.210022</ele>
<time>2021-12-02T20:58:09.585Z</time>
</trkpt>
<trkpt lat="30.9271800" lon="34.9158800">
<ele>591.700012</ele>
<time>2021-12-02T20:58:09.585Z</time>
</trkpt>
<trkpt lat="30.9271400" lon="34.9160900">
<ele>592.289978</ele>
<time>2021-12-02T20:58:09.585Z</time>
</trkpt>
<trkpt lat="30.9271200" lon="34.9162200">
<ele>591.980042</ele>
<time>2021-12-02T20:58:09.585Z</time>
</trkpt>
<trkpt lat="30.9271200" lon="34.9166300">
<ele>588.989990</ele>
<time>2021-12-02T20:58:09.585Z</time>
</trkpt>
<trkpt lat="30.9271000" lon="34.9168700">
<ele>588.559998</ele>
<time>2021-12-02T20:58:09.585Z</time>
</trkpt>
<trkpt lat="30.9270500" lon="34.9170300">
<ele>588.500000</ele>
<time>2021-12-02T20:58:09.585Z</time>
</trkpt>
<trkpt lat="30.9267100" lon="34.9172900">
<ele>587.190002</ele>
<time>2021-12-02T20:58:09.585Z</time>
</trkpt>
<trkpt lat="30.9262700" lon="34.9173300">
<ele>597.190002</ele>
<time>2021-12-02T20:58:09.585Z</time>
</trkpt>
<trkpt lat="30.9260100" lon="34.9172100">
<ele>605.250000</ele>
<time>2021-12-02T20:58:09.585Z</time>
</trkpt>
<trkpt lat="30.9257000" lon="34.9171600">
<ele>607.830017</ele>
<time>2021-12-02T20:58:09.585Z</time>
</trkpt>
<trkpt lat="30.9255800" lon="34.9169000">
<ele>608.440002</ele>
<time>2021-12-02T20:58:09.585Z</time>
</trkpt>
<trkpt lat="30.9255400" lon="34.9168600">
<ele>608.400024</ele>
<time>2021-12-02T20:58:09.585Z</time>
</trkpt>
<trkpt lat="30.9255000" lon="34.9168700">
<ele>607.789978</ele>
<time>2021-12-02T20:58:09.585Z</time>
</trkpt>
<trkpt lat="30.9250800" lon="34.9169900">
<ele>599.470032</ele>
<time>2021-12-02T20:58:09.585Z</time>
</trkpt>
<trkpt lat="30.9249700" lon="34.9171200">
<ele>597.260010</ele>
<time>2021-12-02T20:58:09.585Z</time>
</trkpt>
<trkpt lat="30.9248500" lon="34.9173700">
<ele>597.520020</ele>
<time>2021-12-02T20:58:09.585Z</time>
</trkpt>
<trkpt lat="30.9243500" lon="34.9177000">
<ele>599.640015</ele>
<time>2021-12-02T20:58:09.585Z</time>
</trkpt>
<trkpt lat="30.9241100" lon="34.9180100">
<ele>603.570007</ele>
<time>2021-12-02T20:58:09.585Z</time>
</trkpt>
<trkpt lat="30.9239800" lon="34.9180400">
<ele>607.299988</ele>
<time>2021-12-02T20:58:09.585Z</time>
</trkpt>
<trkpt lat="30.9237200" lon="34.9180200">
<ele>613.919983</ele>
<time>2021-12-02T20:58:09.585Z</time>
</trkpt>
<trkpt lat="30.9233700" lon="34.9176900">
<ele>614.469971</ele>
<time>2021-12-02T20:58:09.585Z</time>
</trkpt>
<trkpt lat="30.9233700" lon="34.9173600">
<ele>610.419983</ele>
<time>2021-12-02T20:58:09.585Z</time>
</trkpt>
<trkpt lat="30.9233600" lon="34.9170800">
<ele>608.630005</ele>
<time>2021-12-02T20:58:09.585Z</time>
</trkpt>
<trkpt lat="30.9233500" lon="34.9168300">
<ele>608.510010</ele>
<time>2021-12-02T20:58:09.585Z</time>
</trkpt>
<trkpt lat="30.9231300" lon="34.9164400">
<ele>610.250000</ele>
<time>2021-12-02T20:58:09.585Z</time>
</trkpt>
<trkpt lat="30.9228500" lon="34.9164400">
<ele>612.479980</ele>
<time>2021-12-02T20:58:09.585Z</time>
</trkpt>
<trkpt lat="30.9227000" lon="34.9165400">
<ele>613.130005</ele>
<time>2021-12-02T20:58:09.585Z</time>
</trkpt>
<trkpt lat="30.9224000" lon="34.9168800">
<ele>613.580017</ele>
<time>2021-12-02T20:58:09.585Z</time>
</trkpt>
<trkpt lat="30.9223200" lon="34.9172000">
<ele>615.839966</ele>
<time>2021-12-02T20:58:09.585Z</time>
</trkpt>
<trkpt lat="30.9222100" lon="34.9173200">
<ele>616.980042</ele>
<time>2021-12-02T20:58:09.585Z</time>
</trkpt>
<trkpt lat="30.9211700" lon="34.9177500">
<ele>613.960022</ele>
<time>2021-12-02T20:58:09.585Z</time>
</trkpt>
<trkpt lat="30.9208900" lon="34.9177300">
<ele>613.200012</ele>
<time>2021-12-02T20:58:09.585Z</time>
</trkpt>
<trkpt lat="30.9207600" lon="34.9176600">
<ele>612.579956</ele>
<time>2021-12-02T20:58:09.585Z</time>
</trkpt>
<trkpt lat="30.9206300" lon="34.9176700">
<ele>611.820007</ele>
<time>2021-12-02T20:58:09.585Z</time>
</trkpt>
<trkpt lat="30.9203500" lon="34.9177400">
<ele>609.660034</ele>
<time>2021-12-02T20:58:09.585Z</time>
</trkpt>
<trkpt lat="30.9203200" lon="34.9177900">
<ele>609.479980</ele>
<time>2021-12-02T20:58:09.585Z</time>
</trkpt>
<trkpt lat="30.9200200" lon="34.9179500">
<ele>610.460022</ele>
<time>2021-12-02T20:58:09.585Z</time>
</trkpt>
<trkpt lat="30.9196700" lon="34.9181900">
<ele>616.710022</ele>
<time>2021-12-02T20:58:09.585Z</time>
</trkpt>
<trkpt lat="30.9195100" lon="34.9181400">
<ele>620.419983</ele>
<time>2021-12-02T20:58:09.585Z</time>
</trkpt>
<trkpt lat="30.9194700" lon="34.9181600">
<ele>621.390015</ele>
<time>2021-12-02T20:58:09.585Z</time>
</trkpt>
<trkpt lat="30.9192100" lon="34.9181200">
<ele>624.340027</ele>
<time>2021-12-02T20:58:09.585Z</time>
</trkpt>
<trkpt lat="30.9190400" lon="34.9180000">
<ele>623.539978</ele>
<time>2021-12-02T20:58:09.585Z</time>
</trkpt>
<trkpt lat="30.9186500" lon="34.9178800">
<ele>620.719971</ele>
<time>2021-12-02T20:58:09.585Z</time>
</trkpt>
<trkpt lat="30.9179900" lon="34.9173400">
<ele>639.899963</ele>
<time>2021-12-02T20:58:09.585Z</time>
</trkpt>
<trkpt lat="30.9176400" lon="34.9172000">
<ele>638.020020</ele>
<time>2021-12-02T20:58:09.585Z</time>
</trkpt>
<trkpt lat="30.9173000" lon="34.9171800">
<ele>633.429993</ele>
<time>2021-12-02T20:58:09.585Z</time>
</trkpt>
<trkpt lat="30.9169200" lon="34.9172000">
<ele>626.420044</ele>
<time>2021-12-02T20:58:09.585Z</time>
</trkpt>
<trkpt lat="30.9169000" lon="34.9171900">
<ele>626.030029</ele>
<time>2021-12-02T20:58:09.585Z</time>
</trkpt>
<trkpt lat="30.9165000" lon="34.9171900">
<ele>623.440002</ele>
<time>2021-12-02T20:58:09.585Z</time>
</trkpt>
<trkpt lat="30.9162100" lon="34.9171800">
<ele>624.589966</ele>
<time>2021-12-02T20:58:09.585Z</time>
</trkpt>
<trkpt lat="30.9159400" lon="34.9168800">
<ele>626.429993</ele>
<time>2021-12-02T20:58:09.585Z</time>
</trkpt>
<trkpt lat="30.9157900" lon="34.9165200">
<ele>631.729980</ele>
<time>2021-12-02T20:58:09.585Z</time>
</trkpt>
<trkpt lat="30.9154100" lon="34.9160500">
<ele>635.640015</ele>
<time>2021-12-02T20:58:09.585Z</time>
</trkpt>
<trkpt lat="30.9150900" lon="34.9159600">
<ele>635.590027</ele>
<time>2021-12-02T20:58:09.585Z</time>
</trkpt>
<trkpt lat="30.9149800" lon="34.9159500">
<ele>635.599976</ele>
<time>2021-12-02T20:58:09.585Z</time>
</trkpt>
<trkpt lat="30.9146500" lon="34.9158100">
<ele>639.730042</ele>
<time>2021-12-02T20:58:09.585Z</time>
</trkpt>
<trkpt lat="30.9146300" lon="34.9158400">
<ele>639.299988</ele>
<time>2021-12-02T20:58:09.585Z</time>
</trkpt>
<trkpt lat="30.9144300" lon="34.9157900">
<ele>642.860046</ele>
<time>2021-12-02T20:58:09.585Z</time>
</trkpt>
<trkpt lat="30.9142900" lon="34.9156500">
<ele>644.300049</ele>
<time>2021-12-02T20:58:09.585Z</time>
</trkpt>
<trkpt lat="30.9141200" lon="34.9155500">
<ele>644.280029</ele>
<time>2021-12-02T20:58:09.585Z</time>
</trkpt>
<trkpt lat="30.9140100" lon="34.9152900">
<ele>648.680054</ele>
<time>2021-12-02T20:58:09.585Z</time>
</trkpt>
<trkpt lat="30.9135500" lon="34.9151800">
<ele>647.679993</ele>
<time>2021-12-02T20:58:09.585Z</time>
</trkpt>
<trkpt lat="30.9132600" lon="34.9152100">
<ele>641.880005</ele>
<time>2021-12-02T20:58:09.585Z</time>
</trkpt>
<trkpt lat="30.9130500" lon="34.9153000">
<ele>636.199951</ele>
<time>2021-12-02T20:58:09.585Z</time>
</trkpt>
<trkpt lat="30.9125100" lon="34.9152400">
<ele>632.820007</ele>
<time>2021-12-02T20:58:09.585Z</time>
</trkpt>
<trkpt lat="30.9121100" lon="34.9152800">
<ele>635.799988</ele>
<time>2021-12-02T20:58:09.585Z</time>
</trkpt>
<trkpt lat="30.9118800" lon="34.9153300">
<ele>634.529968</ele>
<time>2021-12-02T20:58:09.585Z</time>
</trkpt>
<trkpt lat="30.9116000" lon="34.9156100">
<ele>633.250000</ele>
<time>2021-12-02T20:58:09.585Z</time>
</trkpt>
<trkpt lat="30.9115400" lon="34.9158200">
<ele>634.200012</ele>
<time>2021-12-02T20:58:09.585Z</time>
</trkpt>
<trkpt lat="30.9109800" lon="34.9167700">
<ele>637.260010</ele>
<time>2021-12-02T20:58:09.585Z</time>
</trkpt>
<trkpt lat="30.9107400" lon="34.9169700">
<ele>638.700012</ele>
<time>2021-12-02T20:58:09.585Z</time>
</trkpt>
<trkpt lat="30.9098800" lon="34.9173800">
<ele>654.719971</ele>
<time>2021-12-02T20:58:09.585Z</time>
</trkpt>
<trkpt lat="30.9096700" lon="34.9173900">
<ele>658.710022</ele>
<time>2021-12-02T20:58:09.585Z</time>
</trkpt>
<trkpt lat="30.9094800" lon="34.9173500">
<ele>663.389954</ele>
<time>2021-12-02T20:58:09.585Z</time>
</trkpt>
<trkpt lat="30.9093600" lon="34.9172900">
<ele>665.250061</ele>
<time>2021-12-02T20:58:09.585Z</time>
</trkpt>
<trkpt lat="30.9091200" lon="34.9169700">
<ele>667.459961</ele>
<time>2021-12-02T20:58:09.585Z</time>
</trkpt>
<trkpt lat="30.9090400" lon="34.9165400">
<ele>663.979980</ele>
<time>2021-12-02T20:58:09.585Z</time>
</trkpt>
<trkpt lat="30.9088500" lon="34.9162800">
<ele>657.500061</ele>
<time>2021-12-02T20:58:09.585Z</time>
</trkpt>
<trkpt lat="30.9085900" lon="34.9156100">
<ele>654.559998</ele>
<time>2021-12-02T20:58:09.585Z</time>
</trkpt>
<trkpt lat="30.9081200" lon="34.9151900">
<ele>647.369995</ele>
<time>2021-12-02T20:58:09.585Z</time>
</trkpt>
<trkpt lat="30.9080000" lon="34.9151300">
<ele>646.520020</ele>
<time>2021-12-02T20:58:09.585Z</time>
</trkpt>
<trkpt lat="30.9076400" lon="34.9150800">
<ele>649.050049</ele>
<time>2021-12-02T20:58:09.585Z</time>
</trkpt>
<trkpt lat="30.9075800" lon="34.9150600">
<ele>650.099976</ele>
<time>2021-12-02T20:58:09.585Z</time>
</trkpt>
<trkpt lat="30.9073800" lon="34.9148300">
<ele>654.250000</ele>
<time>2021-12-02T20:58:09.585Z</time>
</trkpt>
<trkpt lat="30.9070600" lon="34.9146200">
<ele>653.449951</ele>
<time>2021-12-02T20:58:09.585Z</time>
</trkpt>
<trkpt lat="30.9059100" lon="34.9141900">
<ele>663.909973</ele>
<time>2021-12-02T20:58:09.585Z</time>
</trkpt>
<trkpt lat="30.9053700" lon="34.9137200">
<ele>666.099976</ele>
<time>2021-12-02T20:58:09.585Z</time>
</trkpt>
<trkpt lat="30.9053300" lon="34.9136800">
<ele>666.820007</ele>
<time>2021-12-02T20:58:09.585Z</time>
</trkpt>
<trkpt lat="30.9045300" lon="34.9128300">
<ele>668.390015</ele>
<time>2021-12-02T20:58:09.585Z</time>
</trkpt>
<trkpt lat="30.9041300" lon="34.9122300">
<ele>671.010010</ele>
<time>2021-12-02T20:58:09.585Z</time>
</trkpt>
<trkpt lat="30.9040400" lon="34.9121700">
<ele>670.640015</ele>
<time>2021-12-02T20:58:09.585Z</time>
</trkpt>
<trkpt lat="30.9035600" lon="34.9118300">
<ele>670.690002</ele>
<time>2021-12-02T20:58:09.585Z</time>
</trkpt>
<trkpt lat="30.9029600" lon="34.9117600">
<ele>679.739990</ele>
<time>2021-12-02T20:58:09.585Z</time>
</trkpt>
<trkpt lat="30.9025400" lon="34.9113900">
<ele>675.300049</ele>
<time>2021-12-02T20:58:09.585Z</time>
</trkpt>
<trkpt lat="30.9024700" lon="34.9112000">
<ele>673.489990</ele>
<time>2021-12-02T20:58:09.585Z</time>
</trkpt>
<trkpt lat="30.9018600" lon="34.9106100">
<ele>666.619995</ele>
<time>2021-12-02T20:58:09.585Z</time>
</trkpt>
<trkpt lat="30.9017200" lon="34.9103600">
<ele>663.510010</ele>
<time>2021-12-02T20:58:09.585Z</time>
</trkpt>
<trkpt lat="30.9016700" lon="34.9101500">
<ele>660.629944</ele>
<time>2021-12-02T20:58:09.585Z</time>
</trkpt>
<trkpt lat="30.9013100" lon="34.9096900">
<ele>653.750000</ele>
<time>2021-12-02T20:58:09.585Z</time>
</trkpt>
<trkpt lat="30.9011900" lon="34.9096300">
<ele>652.000000</ele>
<time>2021-12-02T20:58:09.585Z</time>
</trkpt>
<trkpt lat="30.9008700" lon="34.9090800">
<ele>652.380005</ele>
<time>2021-12-02T20:58:09.585Z</time>
</trkpt>
<trkpt lat="30.9002600" lon="34.9083400">
<ele>655.109985</ele>
<time>2021-12-02T20:58:09.585Z</time>
</trkpt>
<trkpt lat="30.9000700" lon="34.9079800">
<ele>653.850037</ele>
<time>2021-12-02T20:58:09.585Z</time>
</trkpt>
<trkpt lat="30.8999900" lon="34.9075800">
<ele>651.099976</ele>
<time>2021-12-02T20:58:09.585Z</time>
</trkpt>
<trkpt lat="30.8995900" lon="34.9068200">
<ele>648.420044</ele>
<time>2021-12-02T20:58:09.585Z</time>
</trkpt>
<trkpt lat="30.8991800" lon="34.9063000">
<ele>651.030029</ele>
<time>2021-12-02T20:58:09.585Z</time>
</trkpt>
<trkpt lat="30.8989200" lon="34.9060800">
<ele>649.559998</ele>
<time>2021-12-02T20:58:09.585Z</time>
</trkpt>
<trkpt lat="30.8986800" lon="34.9055100">
<ele>642.559998</ele>
<time>2021-12-02T20:58:09.585Z</time>
</trkpt>
<trkpt lat="30.8986200" lon="34.9053600">
<ele>638.150024</ele>
<time>2021-12-02T20:58:09.585Z</time>
</trkpt>
<trkpt lat="30.8985200" lon="34.9052000">
<ele>634.130005</ele>
<time>2021-12-02T20:58:09.585Z</time>
</trkpt>
<trkpt lat="30.8984600" lon="34.9050800">
<ele>632.129944</ele>
<time>2021-12-02T20:58:09.585Z</time>
</trkpt>
<trkpt lat="30.8981400" lon="34.9047600">
<ele>626.849976</ele>
<time>2021-12-02T20:58:09.585Z</time>
</trkpt>
<trkpt lat="30.8979000" lon="34.9046400">
<ele>626.480042</ele>
<time>2021-12-02T20:58:09.585Z</time>
</trkpt>
<trkpt lat="30.8976300" lon="34.9047500">
<ele>631.139954</ele>
<time>2021-12-02T20:58:09.585Z</time>
</trkpt>
<trkpt lat="30.8975300" lon="34.9048000">
<ele>633.010010</ele>
<time>2021-12-02T20:58:09.585Z</time>
</trkpt>
<trkpt lat="30.8969500" lon="34.9054300">
<ele>639.270020</ele>
<time>2021-12-02T20:58:09.585Z</time>
</trkpt>
<trkpt lat="30.8968600" lon="34.9055200">
<ele>641.010010</ele>
<time>2021-12-02T20:58:09.585Z</time>
</trkpt>
<trkpt lat="30.8966800" lon="34.9056000">
<ele>641.539978</ele>
<time>2021-12-02T20:58:09.585Z</time>
</trkpt>
<trkpt lat="30.8964100" lon="34.9058300">
<ele>637.500000</ele>
<time>2021-12-02T20:58:09.585Z</time>
</trkpt>
<trkpt lat="30.8962200" lon="34.9059200">
<ele>642.200012</ele>
<time>2021-12-02T20:58:09.585Z</time>
</trkpt>
<trkpt lat="30.8960100" lon="34.9061100">
<ele>646.719971</ele>
<time>2021-12-02T20:58:09.585Z</time>
</trkpt>
<trkpt lat="30.8958800" lon="34.9061600">
<ele>648.400024</ele>
<time>2021-12-02T20:58:09.585Z</time>
</trkpt>
<trkpt lat="30.8957100" lon="34.9062000">
<ele>649.739990</ele>
<time>2021-12-02T20:58:09.585Z</time>
</trkpt>
<trkpt lat="30.8956100" lon="34.9062400">
<ele>650.339966</ele>
<time>2021-12-02T20:58:09.585Z</time>
</trkpt>
<trkpt lat="30.8952900" lon="34.9065200">
<ele>648.119995</ele>
<time>2021-12-02T20:58:09.585Z</time>
</trkpt>
<trkpt lat="30.8951900" lon="34.9065500">
<ele>646.739990</ele>
<time>2021-12-02T20:58:09.585Z</time>
</trkpt>
<trkpt lat="30.8951000" lon="34.9065700">
<ele>645.160034</ele>
<time>2021-12-02T20:58:09.585Z</time>
</trkpt>
<trkpt lat="30.8950400" lon="34.9065700">
<ele>644.099976</ele>
<time>2021-12-02T20:58:09.585Z</time>
</trkpt>
<trkpt lat="30.8948100" lon="34.9064800">
<ele>641.480042</ele>
<time>2021-12-02T20:58:09.585Z</time>
</trkpt>
<trkpt lat="30.8947600" lon="34.9064800">
<ele>640.639954</ele>
<time>2021-12-02T20:58:09.585Z</time>
</trkpt>
<trkpt lat="30.8947000" lon="34.9064800">
<ele>640.239990</ele>
<time>2021-12-02T20:58:09.585Z</time>
</trkpt>
<trkpt lat="30.8943500" lon="34.9066300">
<ele>642.369995</ele>
<time>2021-12-02T20:58:09.585Z</time>
</trkpt>
<trkpt lat="30.8936900" lon="34.9067600">
<ele>644.390015</ele>
<time>2021-12-02T20:58:09.585Z</time>
</trkpt>
<trkpt lat="30.8935600" lon="34.9068100">
<ele>644.729980</ele>
<time>2021-12-02T20:58:09.585Z</time>
</trkpt>
<trkpt lat="30.8931200" lon="34.9070700">
<ele>650.739990</ele>
<time>2021-12-02T20:58:09.585Z</time>
</trkpt>
<trkpt lat="30.8930300" lon="34.9071800">
<ele>652.490051</ele>
<time>2021-12-02T20:58:09.585Z</time>
</trkpt>
<trkpt lat="30.8928800" lon="34.9074300">
<ele>654.409973</ele>
<time>2021-12-02T20:58:09.585Z</time>
</trkpt>
<trkpt lat="30.8927400" lon="34.9077800">
<ele>658.290039</ele>
<time>2021-12-02T20:58:09.585Z</time>
</trkpt>
<trkpt lat="30.8926700" lon="34.9082500">
<ele>662.559998</ele>
<time>2021-12-02T20:58:09.585Z</time>
</trkpt>
<trkpt lat="30.8926600" lon="34.9083500">
<ele>663.150024</ele>
<time>2021-12-02T20:58:09.585Z</time>
</trkpt>
<trkpt lat="30.8926500" lon="34.9084100">
<ele>663.079956</ele>
<time>2021-12-02T20:58:09.585Z</time>
</trkpt>
<trkpt lat="30.8926600" lon="34.9086600">
<ele>663.250000</ele>
<time>2021-12-02T20:58:09.585Z</time>
</trkpt>
<trkpt lat="30.8926600" lon="34.9089600">
<ele>663.580017</ele>
<time>2021-12-02T20:58:09.585Z</time>
</trkpt>
<trkpt lat="30.8926700" lon="34.9091000">
<ele>663.369934</ele>
<time>2021-12-02T20:58:09.585Z</time>
</trkpt>
<trkpt lat="30.8926900" lon="34.9092600">
<ele>663.469971</ele>
<time>2021-12-02T20:58:09.585Z</time>
</trkpt>
<trkpt lat="30.8927600" lon="34.9095700">
<ele>664.390015</ele>
<time>2021-12-02T20:58:09.585Z</time>
</trkpt>
<trkpt lat="30.8928300" lon="34.9096900">
<ele>666.549988</ele>
<time>2021-12-02T20:58:09.585Z</time>
</trkpt>
<trkpt lat="30.8932600" lon="34.9102200">
<ele>667.829956</ele>
<time>2021-12-02T20:58:09.585Z</time>
</trkpt>
<trkpt lat="30.8933700" lon="34.9104100">
<ele>664.500000</ele>
<time>2021-12-02T20:58:09.585Z</time>
</trkpt>
<trkpt lat="30.8934100" lon="34.9105400">
<ele>663.150024</ele>
<time>2021-12-02T20:58:09.585Z</time>
</trkpt>
<trkpt lat="30.8934300" lon="34.9106600">
<ele>662.980042</ele>
<time>2021-12-02T20:58:09.585Z</time>
</trkpt>
<trkpt lat="30.8934400" lon="34.9109300">
<ele>661.719971</ele>
<time>2021-12-02T20:58:09.585Z</time>
</trkpt>
<trkpt lat="30.8934500" lon="34.9113200">
<ele>657.640015</ele>
<time>2021-12-02T20:58:09.585Z</time>
</trkpt>
<trkpt lat="30.8934700" lon="34.9114500">
<ele>656.890015</ele>
<time>2021-12-02T20:58:09.585Z</time>
</trkpt>
<trkpt lat="30.8935400" lon="34.9116200">
<ele>656.789978</ele>
<time>2021-12-02T20:58:09.585Z</time>
</trkpt>
<trkpt lat="30.8936600" lon="34.9118700">
<ele>656.399963</ele>
<time>2021-12-02T20:58:09.585Z</time>
</trkpt>
<trkpt lat="30.8936700" lon="34.9119900">
<ele>656.469971</ele>
<time>2021-12-02T20:58:09.585Z</time>
</trkpt>
<trkpt lat="30.8936700" lon="34.9121800">
<ele>657.299988</ele>
<time>2021-12-02T20:58:09.585Z</time>
</trkpt>
<trkpt lat="30.8936700" lon="34.9123100">
<ele>657.099976</ele>
<time>2021-12-02T20:58:09.585Z</time>
</trkpt>
<trkpt lat="30.8936300" lon="34.9124400">
<ele>655.639954</ele>
<time>2021-12-02T20:58:09.585Z</time>
</trkpt>
<trkpt lat="30.8935400" lon="34.9126400">
<ele>652.719971</ele>
<time>2021-12-02T20:58:09.585Z</time>
</trkpt>
<trkpt lat="30.8933200" lon="34.9130000">
<ele>642.630005</ele>
<time>2021-12-02T20:58:09.585Z</time>
</trkpt>
<trkpt lat="30.8932600" lon="34.9131600">
<ele>640.520020</ele>
<time>2021-12-02T20:58:09.585Z</time>
</trkpt>
<trkpt lat="30.8931900" lon="34.9135900">
<ele>636.149963</ele>
<time>2021-12-02T20:58:09.585Z</time>
</trkpt>
<trkpt lat="30.8931800" lon="34.9139100">
<ele>634.130005</ele>
<time>2021-12-02T20:58:09.585Z</time>
</trkpt>
<trkpt lat="30.8931800" lon="34.9141300">
<ele>632.979980</ele>
<time>2021-12-02T20:58:09.585Z</time>
</trkpt>
<trkpt lat="30.8931800" lon="34.9142200">
<ele>632.580017</ele>
<time>2021-12-02T20:58:09.585Z</time>
</trkpt>
<trkpt lat="30.8932400" lon="34.9144200">
<ele>633.039978</ele>
<time>2021-12-02T20:58:09.585Z</time>
</trkpt>
<trkpt lat="30.8932500" lon="34.9145900">
<ele>631.210022</ele>
<time>2021-12-02T20:58:09.585Z</time>
</trkpt>
<trkpt lat="30.8932400" lon="34.9147800">
<ele>628.430054</ele>
<time>2021-12-02T20:58:09.585Z</time>
</trkpt>
<trkpt lat="30.8932400" lon="34.9148900">
<ele>626.710022</ele>
<time>2021-12-02T20:58:09.585Z</time>
</trkpt>
<trkpt lat="30.8932300" lon="34.9149200">
<ele>626.229980</ele>
<time>2021-12-02T20:58:09.585Z</time>
</trkpt>
<trkpt lat="30.8931800" lon="34.9150400">
<ele>624.269958</ele>
<time>2021-12-02T20:58:09.585Z</time>
</trkpt>
<trkpt lat="30.8931200" lon="34.9152800">
<ele>619.440002</ele>
<time>2021-12-02T20:58:09.585Z</time>
</trkpt>
<trkpt lat="30.8929000" lon="34.9157900">
<ele>615.400024</ele>
<time>2021-12-02T20:58:09.585Z</time>
</trkpt>
<trkpt lat="30.8928900" lon="34.9159300">
<ele>615.849976</ele>
<time>2021-12-02T20:58:09.585Z</time>
</trkpt>
<trkpt lat="30.8929100" lon="34.9160500">
<ele>617.289978</ele>
<time>2021-12-02T20:58:09.585Z</time>
</trkpt>
<trkpt lat="30.8931600" lon="34.9161600">
<ele>618.200012</ele>
<time>2021-12-02T20:58:09.585Z</time>
</trkpt>
<trkpt lat="30.8931600" lon="34.9162400">
<ele>618.739990</ele>
<time>2021-12-02T20:58:09.585Z</time>
</trkpt>
<trkpt lat="30.8929300" lon="34.9164800">
<ele>622.119995</ele>
<time>2021-12-02T20:58:09.585Z</time>
</trkpt>
<trkpt lat="30.8927500" lon="34.9171300">
<ele>618.859985</ele>
<time>2021-12-02T20:58:09.585Z</time>
</trkpt>
<trkpt lat="30.8926400" lon="34.9177700">
<ele>611.559998</ele>
<time>2021-12-02T20:58:09.585Z</time>
</trkpt>
<trkpt lat="30.8924100" lon="34.9181200">
<ele>614.059998</ele>
<time>2021-12-02T20:58:09.585Z</time>
</trkpt>
<trkpt lat="30.8923300" lon="34.9185900">
<ele>619.510010</ele>
<time>2021-12-02T20:58:09.585Z</time>
</trkpt>
<trkpt lat="30.8923300" lon="34.9188400">
<ele>620.339966</ele>
<time>2021-12-02T20:58:09.585Z</time>
</trkpt>
<trkpt lat="30.8923300" lon="34.9189300">
<ele>620.159973</ele>
<time>2021-12-02T20:58:09.585Z</time>
</trkpt>
<trkpt lat="30.8924300" lon="34.9190600">
<ele>616.700012</ele>
<time>2021-12-02T20:58:09.585Z</time>
</trkpt>
<trkpt lat="30.8924800" lon="34.9192600">
<ele>611.469971</ele>
<time>2021-12-02T20:58:09.585Z</time>
</trkpt>
<trkpt lat="30.8925100" lon="34.9203200">
<ele>602.950012</ele>
<time>2021-12-02T20:58:09.585Z</time>
</trkpt>
<trkpt lat="30.8925400" lon="34.9211300">
<ele>604.719971</ele>
<time>2021-12-02T20:58:09.585Z</time>
</trkpt>
<trkpt lat="30.8925900" lon="34.9213700">
<ele>602.510010</ele>
<time>2021-12-02T20:58:09.585Z</time>
</trkpt>
<trkpt lat="30.8929100" lon="34.9218400">
<ele>587.940002</ele>
<time>2021-12-02T20:58:09.585Z</time>
</trkpt>
<trkpt lat="30.8929200" lon="34.9219200">
<ele>587.570007</ele>
<time>2021-12-02T20:58:09.585Z</time>
</trkpt>
<trkpt lat="30.8929200" lon="34.9220400">
<ele>587.320007</ele>
<time>2021-12-02T20:58:09.585Z</time>
</trkpt>
<trkpt lat="30.8929200" lon="34.9222100">
<ele>587.019958</ele>
<time>2021-12-02T20:58:09.585Z</time>
</trkpt>
<trkpt lat="30.8933000" lon="34.9220700">
<ele>580.529968</ele>
<time>2021-12-02T20:58:09.585Z</time>
</trkpt>
<trkpt lat="30.8933900" lon="34.9220900">
<ele>576.989990</ele>
<time>2021-12-02T20:58:09.585Z</time>
</trkpt>
<trkpt lat="30.8935200" lon="34.9221600">
<ele>570.979980</ele>
<time>2021-12-02T20:58:09.585Z</time>
</trkpt>
<trkpt lat="30.8935600" lon="34.9223500">
<ele>566.720032</ele>
<time>2021-12-02T20:58:09.585Z</time>
</trkpt>
<trkpt lat="30.8936000" lon="34.9223600">
<ele>564.960022</ele>
<time>2021-12-02T20:58:09.585Z</time>
</trkpt>
<trkpt lat="30.8937300" lon="34.9223400">
<ele>561.640015</ele>
<time>2021-12-02T20:58:09.585Z</time>
</trkpt>
<trkpt lat="30.8939700" lon="34.9220900">
<ele>558.550049</ele>
<time>2021-12-02T20:58:09.585Z</time>
</trkpt>
<trkpt lat="30.8940500" lon="34.9221000">
<ele>556.650024</ele>
<time>2021-12-02T20:58:09.585Z</time>
</trkpt>
<trkpt lat="30.8941600" lon="34.9223800">
<ele>551.849976</ele>
<time>2021-12-02T20:58:09.585Z</time>
</trkpt>
<trkpt lat="30.8943400" lon="34.9229400">
<ele>545.039978</ele>
<time>2021-12-02T20:58:09.585Z</time>
</trkpt>
<trkpt lat="30.8944200" lon="34.9231100">
<ele>545.459961</ele>
<time>2021-12-02T20:58:09.585Z</time>
</trkpt>
<trkpt lat="30.8945800" lon="34.9231400">
<ele>544.960022</ele>
<time>2021-12-02T20:58:09.585Z</time>
</trkpt>
<trkpt lat="30.8949400" lon="34.9232200">
<ele>544.260010</ele>
<time>2021-12-02T20:58:09.585Z</time>
</trkpt>
<trkpt lat="30.8951500" lon="34.9233800">
<ele>542.469971</ele>
<time>2021-12-02T20:58:09.585Z</time>
</trkpt>
<trkpt lat="30.8953500" lon="34.9236800">
<ele>539.099976</ele>
<time>2021-12-02T20:58:09.585Z</time>
</trkpt>
<trkpt lat="30.8954500" lon="34.9237000">
<ele>535.760010</ele>
<time>2021-12-02T20:58:09.585Z</time>
</trkpt>
<trkpt lat="30.8955300" lon="34.9236900">
<ele>533.130005</ele>
<time>2021-12-02T20:58:09.585Z</time>
</trkpt>
<trkpt lat="30.8959400" lon="34.9233200">
<ele>525.359985</ele>
<time>2021-12-02T20:58:09.585Z</time>
</trkpt>
<trkpt lat="30.8960800" lon="34.9233100">
<ele>523.350037</ele>
<time>2021-12-02T20:58:09.585Z</time>
</trkpt>
<trkpt lat="30.8961800" lon="34.9233200">
<ele>523.000000</ele>
<time>2021-12-02T20:58:09.585Z</time>
</trkpt>
<trkpt lat="30.8964600" lon="34.9234800">
<ele>521.020020</ele>
<time>2021-12-02T20:58:09.585Z</time>
</trkpt>
<trkpt lat="30.8965400" lon="34.9235800">
<ele>519.309998</ele>
<time>2021-12-02T20:58:09.585Z</time>
</trkpt>
<trkpt lat="30.8966500" lon="34.9239000">
<ele>518.959961</ele>
<time>2021-12-02T20:58:09.585Z</time>
</trkpt>
<trkpt lat="30.8967700" lon="34.9240600">
<ele>521.429993</ele>
<time>2021-12-02T20:58:09.585Z</time>
</trkpt>
<trkpt lat="30.8969900" lon="34.9241800">
<ele>524.419983</ele>
<time>2021-12-02T20:58:09.585Z</time>
</trkpt>
<trkpt lat="30.8972400" lon="34.9243800">
<ele>524.649963</ele>
<time>2021-12-02T20:58:09.585Z</time>
</trkpt>
<trkpt lat="30.8975500" lon="34.9248500">
<ele>520.469971</ele>
<time>2021-12-02T20:58:09.585Z</time>
</trkpt>
<trkpt lat="30.8979300" lon="34.9251300">
<ele>520.790039</ele>
<time>2021-12-02T20:58:09.585Z</time>
</trkpt>
<trkpt lat="30.8986300" lon="34.9257100">
<ele>509.799988</ele>
<time>2021-12-02T20:58:09.585Z</time>
</trkpt>
<trkpt lat="30.8986800" lon="34.9257900">
<ele>507.650024</ele>
<time>2021-12-02T20:58:09.585Z</time>
</trkpt>
<trkpt lat="30.8987300" lon="34.9261100">
<ele>505.429993</ele>
<time>2021-12-02T20:58:09.585Z</time>
</trkpt>
<trkpt lat="30.8988800" lon="34.9263600">
<ele>500.370026</ele>
<time>2021-12-02T20:58:09.585Z</time>
</trkpt>
<trkpt lat="30.8990400" lon="34.9264900">
<ele>498.860016</ele>
<time>2021-12-02T20:58:09.585Z</time>
</trkpt>
<trkpt lat="30.8994900" lon="34.9267700">
<ele>494.279999</ele>
<time>2021-12-02T20:58:09.585Z</time>
</trkpt>
<trkpt lat="30.8997400" lon="34.9270600">
<ele>498.140015</ele>
<time>2021-12-02T20:58:09.585Z</time>
</trkpt>
<trkpt lat="30.8998700" lon="34.9271300">
<ele>500.459991</ele>
<time>2021-12-02T20:58:09.585Z</time>
</trkpt>
<trkpt lat="30.8999500" lon="34.9272800">
<ele>501.440002</ele>
<time>2021-12-02T20:58:09.585Z</time>
</trkpt>
<trkpt lat="30.9004300" lon="34.9277600">
<ele>498.260010</ele>
<time>2021-12-02T20:58:09.585Z</time>
</trkpt>
<trkpt lat="30.9009000" lon="34.9282300">
<ele>492.600006</ele>
<time>2021-12-02T20:58:09.585Z</time>
</trkpt>
<trkpt lat="30.9011800" lon="34.9284000">
<ele>492.669983</ele>
<time>2021-12-02T20:58:09.585Z</time>
</trkpt>
<trkpt lat="30.9014500" lon="34.9287600">
<ele>493.040009</ele>
<time>2021-12-02T20:58:09.585Z</time>
</trkpt>
<trkpt lat="30.9015100" lon="34.9289000">
<ele>492.539978</ele>
<time>2021-12-02T20:58:09.585Z</time>
</trkpt>
<trkpt lat="30.9019000" lon="34.9291600">
<ele>493.780029</ele>
<time>2021-12-02T20:58:09.585Z</time>
</trkpt>
<trkpt lat="30.9023100" lon="34.9294200">
<ele>486.480011</ele>
<time>2021-12-02T20:58:09.585Z</time>
</trkpt>
<trkpt lat="30.9026900" lon="34.9296800">
<ele>475.440002</ele>
<time>2021-12-02T20:58:09.585Z</time>
</trkpt>
<trkpt lat="30.9032400" lon="34.9300000">
<ele>475.649994</ele>
<time>2021-12-02T20:58:09.585Z</time>
</trkpt>
<trkpt lat="30.9037900" lon="34.9303000">
<ele>485.119995</ele>
<time>2021-12-02T20:58:09.585Z</time>
</trkpt>
<trkpt lat="30.9040900" lon="34.9307200">
<ele>481.079987</ele>
<time>2021-12-02T20:58:09.585Z</time>
</trkpt>
<trkpt lat="30.9044700" lon="34.9315700">
<ele>467.539978</ele>
<time>2021-12-02T20:58:09.585Z</time>
</trkpt>
<trkpt lat="30.9048400" lon="34.9322100">
<ele>467.059998</ele>
<time>2021-12-02T20:58:09.585Z</time>
</trkpt>
<trkpt lat="30.9052100" lon="34.9328500">
<ele>467.169983</ele>
<time>2021-12-02T20:58:09.585Z</time>
</trkpt>
<trkpt lat="30.9054700" lon="34.9334100">
<ele>463.609985</ele>
<time>2021-12-02T20:58:09.585Z</time>
</trkpt>
<trkpt lat="30.9057200" lon="34.9339600">
<ele>468.239990</ele>
<time>2021-12-02T20:58:09.585Z</time>
</trkpt>
<trkpt lat="30.9061700" lon="34.9347500">
<ele>463.380005</ele>
<time>2021-12-02T20:58:09.585Z</time>
</trkpt>
<trkpt lat="30.9064600" lon="34.9351900">
<ele>457.609985</ele>
<time>2021-12-02T20:58:09.585Z</time>
</trkpt>
<trkpt lat="30.9067400" lon="34.9356300">
<ele>458.049988</ele>
<time>2021-12-02T20:58:09.585Z</time>
</trkpt>
<trkpt lat="30.9067500" lon="34.9359000">
<ele>460.609985</ele>
<time>2021-12-02T20:58:09.585Z</time>
</trkpt>
<trkpt lat="30.9067700" lon="34.9359500">
<ele>461.169983</ele>
<time>2021-12-02T20:58:09.585Z</time>
</trkpt>
<trkpt lat="30.9070200" lon="34.9364700">
<ele>460.750000</ele>
<time>2021-12-02T20:58:09.585Z</time>
</trkpt>
<trkpt lat="30.9072700" lon="34.9369900">
<ele>455.019989</ele>
<time>2021-12-02T20:58:09.585Z</time>
</trkpt>
<trkpt lat="30.9075200" lon="34.9375000">
<ele>462.000000</ele>
<time>2021-12-02T20:58:09.585Z</time>
</trkpt>
<trkpt lat="30.9077600" lon="34.9380100">
<ele>455.829987</ele>
<time>2021-12-02T20:58:09.585Z</time>
</trkpt>
<trkpt lat="30.9080600" lon="34.9385500">
<ele>448.709991</ele>
<time>2021-12-02T20:58:09.585Z</time>
</trkpt>
<trkpt lat="30.9083400" lon="34.9389800">
<ele>450.690002</ele>
<time>2021-12-02T20:58:09.585Z</time>
</trkpt>
<trkpt lat="30.9086200" lon="34.9394200">
<ele>450.960022</ele>
<time>2021-12-02T20:58:09.585Z</time>
</trkpt>
<trkpt lat="30.9089000" lon="34.9398400">
<ele>453.119995</ele>
<time>2021-12-02T20:58:09.585Z</time>
</trkpt>
<trkpt lat="30.9092800" lon="34.9407100">
<ele>445.360016</ele>
<time>2021-12-02T20:58:09.585Z</time>
</trkpt>
<trkpt lat="30.9095900" lon="34.9412200">
<ele>436.130005</ele>
<time>2021-12-02T20:58:09.585Z</time>
</trkpt>
<trkpt lat="30.9097300" lon="34.9416000">
<ele>438.649994</ele>
<time>2021-12-02T20:58:09.585Z</time>
</trkpt>
<trkpt lat="30.9100200" lon="34.9419600">
<ele>435.330017</ele>
<time>2021-12-02T20:58:09.585Z</time>
</trkpt>
<trkpt lat="30.9102600" lon="34.9424800">
<ele>442.600006</ele>
<time>2021-12-02T20:58:09.585Z</time>
</trkpt>
<trkpt lat="30.9105300" lon="34.9429500">
<ele>440.619995</ele>
<time>2021-12-02T20:58:09.585Z</time>
</trkpt>
<trkpt lat="30.9107900" lon="34.9434200">
<ele>439.889984</ele>
<time>2021-12-02T20:58:09.585Z</time>
</trkpt>
<trkpt lat="30.9110000" lon="34.9439400">
<ele>439.779999</ele>
<time>2021-12-02T20:58:09.585Z</time>
</trkpt>
<trkpt lat="30.9112000" lon="34.9444500">
<ele>440.640015</ele>
<time>2021-12-02T20:58:09.585Z</time>
</trkpt>
<trkpt lat="30.9114000" lon="34.9452100">
<ele>438.770020</ele>
<time>2021-12-02T20:58:09.585Z</time>
</trkpt>
<trkpt lat="30.9115900" lon="34.9459600">
<ele>438.320007</ele>
<time>2021-12-02T20:58:09.585Z</time>
</trkpt>
<trkpt lat="30.9118000" lon="34.9467700">
<ele>437.069977</ele>
<time>2021-12-02T20:58:09.585Z</time>
</trkpt>
<trkpt lat="30.9119900" lon="34.9473800">
<ele>434.709991</ele>
<time>2021-12-02T20:58:09.585Z</time>
</trkpt>
<trkpt lat="30.9121900" lon="34.9479700">
<ele>428.079987</ele>
<time>2021-12-02T20:58:09.585Z</time>
</trkpt>
<trkpt lat="30.9124200" lon="34.9489500">
<ele>417.750031</ele>
<time>2021-12-02T20:58:09.585Z</time>
</trkpt>
<trkpt lat="30.9126400" lon="34.9496900">
<ele>421.940002</ele>
<time>2021-12-02T20:58:09.585Z</time>
</trkpt>
<trkpt lat="30.9128600" lon="34.9504200">
<ele>427.190002</ele>
<time>2021-12-02T20:58:09.585Z</time>
</trkpt>
<trkpt lat="30.9130100" lon="34.9510900">
<ele>432.940002</ele>
<time>2021-12-02T20:58:09.585Z</time>
</trkpt>
<trkpt lat="30.9131800" lon="34.9517600">
<ele>434.119995</ele>
<time>2021-12-02T20:58:09.585Z</time>
</trkpt>
<trkpt lat="30.9133400" lon="34.9524400">
<ele>435.119995</ele>
<time>2021-12-02T20:58:09.585Z</time>
</trkpt>
<trkpt lat="30.9134300" lon="34.9528700">
<ele>436.929993</ele>
<time>2021-12-02T20:58:09.585Z</time>
</trkpt>
<trkpt lat="30.9136800" lon="34.9534200">
<ele>433.700012</ele>
<time>2021-12-02T20:58:09.585Z</time>
</trkpt>
<trkpt lat="30.9139400" lon="34.9539700">
<ele>434.149994</ele>
<time>2021-12-02T20:58:09.585Z</time>
</trkpt>
<trkpt lat="30.9142000" lon="34.9545200">
<ele>431.119995</ele>
<time>2021-12-02T20:58:09.585Z</time>
</trkpt>
<trkpt lat="30.9144500" lon="34.9550700">
<ele>428.750031</ele>
<time>2021-12-02T20:58:09.585Z</time>
</trkpt>
<trkpt lat="30.9147100" lon="34.9556300">
<ele>427.670013</ele>
<time>2021-12-02T20:58:09.585Z</time>
</trkpt>
<trkpt lat="30.9147900" lon="34.9559400">
<ele>429.650024</ele>
<time>2021-12-02T20:58:09.585Z</time>
</trkpt>
<trkpt lat="30.9150500" lon="34.9564100">
<ele>429.090027</ele>
<time>2021-12-02T20:58:09.585Z</time>
</trkpt>
<trkpt lat="30.9153200" lon="34.9568800">
<ele>427.580017</ele>
<time>2021-12-02T20:58:09.585Z</time>
</trkpt>
<trkpt lat="30.9154300" lon="34.9572500">
<ele>428.270020</ele>
<time>2021-12-02T20:58:09.585Z</time>
</trkpt>
<trkpt lat="30.9154200" lon="34.9574900">
<ele>429.399994</ele>
<time>2021-12-02T20:58:09.585Z</time>
</trkpt>
<trkpt lat="30.9154700" lon="34.9576400">
<ele>430.630005</ele>
<time>2021-12-02T20:58:09.585Z</time>
</trkpt>
<trkpt lat="30.9157600" lon="34.9578200">
<ele>437.440002</ele>
<time>2021-12-02T20:58:09.585Z</time>
</trkpt>
<trkpt lat="30.9162200" lon="34.9586700">
<ele>440.010010</ele>
<time>2021-12-02T20:58:09.585Z</time>
</trkpt>
<trkpt lat="30.9162800" lon="34.9589600">
<ele>435.779999</ele>
<time>2021-12-02T20:58:09.585Z</time>
</trkpt>
<trkpt lat="30.9162900" lon="34.9592400">
<ele>431.230011</ele>
<time>2021-12-02T20:58:09.585Z</time>
</trkpt>
<trkpt lat="30.9163500" lon="34.9594500">
<ele>428.690002</ele>
<time>2021-12-02T20:58:09.585Z</time>
</trkpt>
<trkpt lat="30.9165600" lon="34.9597700">
<ele>428.639984</ele>
<time>2021-12-02T20:58:09.585Z</time>
</trkpt>
<trkpt lat="30.9167700" lon="34.9602800">
<ele>430.100006</ele>
<time>2021-12-02T20:58:09.585Z</time>
</trkpt>
<trkpt lat="30.9169600" lon="34.9607800">
<ele>431.429993</ele>
<time>2021-12-02T20:58:09.585Z</time>
</trkpt>
<trkpt lat="30.9171600" lon="34.9612800">
<ele>428.150024</ele>
<time>2021-12-02T20:58:09.585Z</time>
</trkpt>
<trkpt lat="30.9173600" lon="34.9617800">
<ele>425.889984</ele>
<time>2021-12-02T20:58:09.585Z</time>
</trkpt>
<trkpt lat="30.9174900" lon="34.9623300">
<ele>420.500000</ele>
<time>2021-12-02T20:58:09.585Z</time>
</trkpt>
<trkpt lat="30.9175800" lon="34.9630000">
<ele>419.100006</ele>
<time>2021-12-02T20:58:09.585Z</time>
</trkpt>
<trkpt lat="30.9176700" lon="34.9636800">
<ele>425.070007</ele>
<time>2021-12-02T20:58:09.585Z</time>
</trkpt>
<trkpt lat="30.9177600" lon="34.9643600">
<ele>428.020020</ele>
<time>2021-12-02T20:58:09.585Z</time>
</trkpt>
<trkpt lat="30.9178900" lon="34.9647000">
<ele>429.609985</ele>
<time>2021-12-02T20:58:09.585Z</time>
</trkpt>
<trkpt lat="30.9182400" lon="34.9653200">
<ele>421.660004</ele>
<time>2021-12-02T20:58:09.585Z</time>
</trkpt>
<trkpt lat="30.9185300" lon="34.9659700">
<ele>428.759979</ele>
<time>2021-12-02T20:58:09.585Z</time>
</trkpt>
<trkpt lat="30.9188000" lon="34.9666300">
<ele>429.040009</ele>
<time>2021-12-02T20:58:09.585Z</time>
</trkpt>
<trkpt lat="30.9188500" lon="34.9667500">
<ele>428.920013</ele>
<time>2021-12-02T20:58:09.585Z</time>
</trkpt>
<trkpt lat="30.9190800" lon="34.9673800">
<ele>429.390015</ele>
<time>2021-12-02T20:58:09.585Z</time>
</trkpt>
<trkpt lat="30.9193000" lon="34.9680100">
<ele>429.690002</ele>
<time>2021-12-02T20:58:09.585Z</time>
</trkpt>
<trkpt lat="30.9195400" lon="34.9686300">
<ele>419.679993</ele>
<time>2021-12-02T20:58:09.585Z</time>
</trkpt>
<trkpt lat="30.9196200" lon="34.9694300">
<ele>414.529999</ele>
<time>2021-12-02T20:58:09.585Z</time>
</trkpt>
<trkpt lat="30.9198400" lon="34.9699200">
<ele>414.169983</ele>
<time>2021-12-02T20:58:09.585Z</time>
</trkpt>
<trkpt lat="30.9200000" lon="34.9704500">
<ele>414.620026</ele>
<time>2021-12-02T20:58:09.585Z</time>
</trkpt>
<trkpt lat="30.9201500" lon="34.9709800">
<ele>415.789978</ele>
<time>2021-12-02T20:58:09.585Z</time>
</trkpt>
<trkpt lat="30.9202800" lon="34.9711500">
<ele>411.660004</ele>
<time>2021-12-02T20:58:09.585Z</time>
</trkpt>
<trkpt lat="30.9205500" lon="34.9712900">
<ele>402.869995</ele>
<time>2021-12-02T20:58:09.585Z</time>
</trkpt>
<trkpt lat="30.9210000" lon="34.9718000">
<ele>401.270020</ele>
<time>2021-12-02T20:58:09.585Z</time>
</trkpt>
<trkpt lat="30.9214400" lon="34.9723100">
<ele>398.359985</ele>
<time>2021-12-02T20:58:09.585Z</time>
</trkpt>
<trkpt lat="30.9216400" lon="34.9729100">
<ele>397.849976</ele>
<time>2021-12-02T20:58:09.585Z</time>
</trkpt>
<trkpt lat="30.9219200" lon="34.9733800">
<ele>398.910004</ele>
<time>2021-12-02T20:58:09.585Z</time>
</trkpt>
<trkpt lat="30.9223300" lon="34.9737900">
<ele>396.260010</ele>
<time>2021-12-02T20:58:09.585Z</time>
</trkpt>
<trkpt lat="30.9225100" lon="34.9738400">
<ele>395.889984</ele>
<time>2021-12-02T20:58:09.585Z</time>
</trkpt>
<trkpt lat="30.9226100" lon="34.9738600">
<ele>396.649994</ele>
<time>2021-12-02T20:58:09.585Z</time>
</trkpt>
<trkpt lat="30.9228700" lon="34.9739300">
<ele>399.279999</ele>
<time>2021-12-02T20:58:09.585Z</time>
</trkpt>
<trkpt lat="30.9233400" lon="34.9741900">
<ele>399.100006</ele>
<time>2021-12-02T20:58:09.585Z</time>
</trkpt>
<trkpt lat="30.9237800" lon="34.9744300">
<ele>398.480011</ele>
<time>2021-12-02T20:58:09.585Z</time>
</trkpt>
<trkpt lat="30.9241000" lon="34.9747700">
<ele>397.360016</ele>
<time>2021-12-02T20:58:09.585Z</time>
</trkpt>
<trkpt lat="30.9247900" lon="34.9752600">
<ele>396.000000</ele>
<time>2021-12-02T20:58:09.585Z</time>
</trkpt>
<trkpt lat="30.9252900" lon="34.9754900">
<ele>391.049988</ele>
<time>2021-12-02T20:58:09.585Z</time>
</trkpt>
<trkpt lat="30.9256800" lon="34.9758000">
<ele>383.240021</ele>
<time>2021-12-02T20:58:09.585Z</time>
</trkpt>
<trkpt lat="30.9262900" lon="34.9761000">
<ele>387.630005</ele>
<time>2021-12-02T20:58:09.585Z</time>
</trkpt>
<trkpt lat="30.9268200" lon="34.9764400">
<ele>384.260010</ele>
<time>2021-12-02T20:58:09.585Z</time>
</trkpt>
<trkpt lat="30.9273500" lon="34.9767700">
<ele>381.400024</ele>
<time>2021-12-02T20:58:09.585Z</time>
</trkpt>
<trkpt lat="30.9276400" lon="34.9770100">
<ele>380.910004</ele>
<time>2021-12-02T20:58:09.585Z</time>
</trkpt>
<trkpt lat="30.9282600" lon="34.9776600">
<ele>384.589996</ele>
<time>2021-12-02T20:58:09.585Z</time>
</trkpt>
<trkpt lat="30.9286500" lon="34.9779300">
<ele>384.119995</ele>
<time>2021-12-02T20:58:09.585Z</time>
</trkpt>
<trkpt lat="30.9290400" lon="34.9782200">
<ele>385.179993</ele>
<time>2021-12-02T20:58:09.585Z</time>
</trkpt>
<trkpt lat="30.9294400" lon="34.9785100">
<ele>386.320007</ele>
<time>2021-12-02T20:58:09.585Z</time>
</trkpt>
<trkpt lat="30.9298300" lon="34.9787900">
<ele>376.480011</ele>
<time>2021-12-02T20:58:09.585Z</time>
</trkpt>
<trkpt lat="30.9300200" lon="34.9788900">
<ele>373.359985</ele>
<time>2021-12-02T20:58:09.585Z</time>
</trkpt>
<trkpt lat="30.9307200" lon="34.9790000">
<ele>379.329987</ele>
<time>2021-12-02T20:58:09.585Z</time>
</trkpt>
<trkpt lat="30.9311800" lon="34.9791800">
<ele>376.500000</ele>
<time>2021-12-02T20:58:09.585Z</time>
</trkpt>
<trkpt lat="30.9316400" lon="34.9793400">
<ele>375.670013</ele>
<time>2021-12-02T20:58:09.585Z</time>
</trkpt>
<trkpt lat="30.9320700" lon="34.9795000">
<ele>376.089996</ele>
<time>2021-12-02T20:58:09.585Z</time>
</trkpt>
<trkpt lat="30.9325600" lon="34.9798700">
<ele>375.779999</ele>
<time>2021-12-02T20:58:09.585Z</time>
</trkpt>
<trkpt lat="30.9330400" lon="34.9802300">
<ele>369.949982</ele>
<time>2021-12-02T20:58:09.585Z</time>
</trkpt>
<trkpt lat="30.9334200" lon="34.9804400">
<ele>369.970001</ele>
<time>2021-12-02T20:58:09.585Z</time>
</trkpt>
<trkpt lat="30.9341700" lon="34.9808800">
<ele>369.809998</ele>
<time>2021-12-02T20:58:09.585Z</time>
</trkpt>
<trkpt lat="30.9347900" lon="34.9814500">
<ele>371.640015</ele>
<time>2021-12-02T20:58:09.585Z</time>
</trkpt>
<trkpt lat="30.9352800" lon="34.9816700">
<ele>377.040009</ele>
<time>2021-12-02T20:58:09.585Z</time>
</trkpt>
<trkpt lat="30.9358700" lon="34.9819400">
<ele>366.540009</ele>
<time>2021-12-02T20:58:09.585Z</time>
</trkpt>
<trkpt lat="30.9366100" lon="34.9824600">
<ele>368.750000</ele>
<time>2021-12-02T20:58:09.585Z</time>
</trkpt>
<trkpt lat="30.9375900" lon="34.9827200">
<ele>361.399994</ele>
<time>2021-12-02T20:58:09.585Z</time>
</trkpt>
<trkpt lat="30.9378900" lon="34.9827300">
<ele>361.700012</ele>
<time>2021-12-02T20:58:09.585Z</time>
</trkpt>
<trkpt lat="30.9380700" lon="34.9827700">
<ele>361.130005</ele>
<time>2021-12-02T20:58:09.585Z</time>
</trkpt>
<trkpt lat="30.9399500" lon="34.9837600">
<ele>353.450012</ele>
<time>2021-12-02T20:58:09.585Z</time>
</trkpt>
<trkpt lat="30.9402200" lon="34.9839000">
<ele>353.910004</ele>
<time>2021-12-02T20:58:09.585Z</time>
</trkpt>
<trkpt lat="30.9409600" lon="34.9845200">
<ele>346.900024</ele>
<time>2021-12-02T20:58:09.585Z</time>
</trkpt>
<trkpt lat="30.9412100" lon="34.9852600">
<ele>344.660004</ele>
<time>2021-12-02T20:58:09.585Z</time>
</trkpt>
<trkpt lat="30.9413100" lon="34.9853500">
<ele>343.139984</ele>
<time>2021-12-02T20:58:09.585Z</time>
</trkpt>
<trkpt lat="30.9418000" lon="34.9856600">
<ele>341.819977</ele>
<time>2021-12-02T20:58:09.585Z</time>
</trkpt>
<trkpt lat="30.9433000" lon="34.9850100">
<ele>340.880005</ele>
<time>2021-12-02T20:58:09.585Z</time>
</trkpt>
<trkpt lat="30.9441400" lon="34.9848500">
<ele>339.470001</ele>
<time>2021-12-02T20:58:09.585Z</time>
</trkpt>
<trkpt lat="30.9453100" lon="34.9847900">
<ele>340.010010</ele>
<time>2021-12-02T20:58:09.585Z</time>
</trkpt>
<trkpt lat="30.9462000" lon="34.9846900">
<ele>340.950012</ele>
<time>2021-12-02T20:58:09.585Z</time>
</trkpt>
<trkpt lat="30.9463500" lon="34.9846200">
<ele>337.399994</ele>
<time>2021-12-02T20:58:09.585Z</time>
</trkpt>
<trkpt lat="30.9464400" lon="34.9846100">
<ele>336.549988</ele>
<time>2021-12-02T20:58:09.585Z</time>
</trkpt>
<trkpt lat="30.9466800" lon="34.9845400">
<ele>335.810028</ele>
<time>2021-12-02T20:58:09.585Z</time>
</trkpt>
<trkpt lat="30.9468300" lon="34.9844200">
<ele>338.429993</ele>
<time>2021-12-02T20:58:09.585Z</time>
</trkpt>
<trkpt lat="30.9469300" lon="34.9843300">
<ele>340.529999</ele>
<time>2021-12-02T20:58:09.585Z</time>
</trkpt>
<trkpt lat="30.9471400" lon="34.9839700">
<ele>344.979980</ele>
<time>2021-12-02T20:58:09.585Z</time>
</trkpt>
<trkpt lat="30.9473700" lon="34.9836500">
<ele>348.929993</ele>
<time>2021-12-02T20:58:09.585Z</time>
</trkpt>
<trkpt lat="30.9478600" lon="34.9831000">
<ele>352.049988</ele>
<time>2021-12-02T20:58:09.585Z</time>
</trkpt>
<trkpt lat="30.9480200" lon="34.9830400">
<ele>353.769989</ele>
<time>2021-12-02T20:58:09.585Z</time>
</trkpt>
<trkpt lat="30.9480900" lon="34.9829800">
<ele>354.210022</ele>
<time>2021-12-02T20:58:09.585Z</time>
</trkpt>
<trkpt lat="30.9481500" lon="34.9827400">
<ele>354.290009</ele>
<time>2021-12-02T20:58:09.585Z</time>
</trkpt>
<trkpt lat="30.9482600" lon="34.9825300">
<ele>353.000000</ele>
<time>2021-12-02T20:58:09.585Z</time>
</trkpt>
<trkpt lat="30.9486800" lon="34.9820700">
<ele>353.339996</ele>
<time>2021-12-02T20:58:09.585Z</time>
</trkpt>
<trkpt lat="30.9488200" lon="34.9819700">
<ele>356.289978</ele>
<time>2021-12-02T20:58:09.585Z</time>
</trkpt>
<trkpt lat="30.9488700" lon="34.9819200">
<ele>357.200012</ele>
<time>2021-12-02T20:58:09.585Z</time>
</trkpt>
<trkpt lat="30.9491400" lon="34.9817100">
<ele>363.320007</ele>
<time>2021-12-02T20:58:09.585Z</time>
</trkpt>
<trkpt lat="30.9492300" lon="34.9816700">
<ele>364.470001</ele>
<time>2021-12-02T20:58:09.585Z</time>
</trkpt>
<trkpt lat="30.9493100" lon="34.9816100">
<ele>364.419983</ele>
<time>2021-12-02T20:58:09.585Z</time>
</trkpt>
<trkpt lat="30.9495200" lon="34.9815000">
<ele>364.740021</ele>
<time>2021-12-02T20:58:09.585Z</time>
</trkpt>
<trkpt lat="30.9496100" lon="34.9814700">
<ele>365.070007</ele>
<time>2021-12-02T20:58:09.585Z</time>
</trkpt>
<trkpt lat="30.9499300" lon="34.9813500">
<ele>365.010010</ele>
<time>2021-12-02T20:58:09.585Z</time>
</trkpt>
<trkpt lat="30.9500900" lon="34.9812600">
<ele>362.570007</ele>
<time>2021-12-02T20:58:09.585Z</time>
</trkpt>
<trkpt lat="30.9502200" lon="34.9812100">
<ele>360.550018</ele>
<time>2021-12-02T20:58:09.585Z</time>
</trkpt>
<trkpt lat="30.9507500" lon="34.9809800">
<ele>361.519989</ele>
<time>2021-12-02T20:58:09.585Z</time>
</trkpt>
<trkpt lat="30.9508300" lon="34.9809300">
<ele>362.940002</ele>
<time>2021-12-02T20:58:09.585Z</time>
</trkpt>
<trkpt lat="30.9509000" lon="34.9809000">
<ele>363.660004</ele>
<time>2021-12-02T20:58:09.585Z</time>
</trkpt>
<trkpt lat="30.9510500" lon="34.9808700">
<ele>365.239990</ele>
<time>2021-12-02T20:58:09.585Z</time>
</trkpt>
<trkpt lat="30.9513500" lon="34.9808700">
<ele>365.640015</ele>
<time>2021-12-02T20:58:09.585Z</time>
</trkpt>
<trkpt lat="30.9514300" lon="34.9808900">
<ele>365.569977</ele>
<time>2021-12-02T20:58:09.585Z</time>
</trkpt>
<trkpt lat="30.9520300" lon="34.9809900">
<ele>361.589996</ele>
<time>2021-12-02T20:58:09.585Z</time>
</trkpt>
<trkpt lat="30.9522400" lon="34.9810100">
<ele>354.390015</ele>
<time>2021-12-02T20:58:09.585Z</time>
</trkpt>
<trkpt lat="30.9522900" lon="34.9810400">
<ele>352.690002</ele>
<time>2021-12-02T20:58:09.585Z</time>
</trkpt>
<trkpt lat="30.9526600" lon="34.9810500">
<ele>347.010010</ele>
<time>2021-12-02T20:58:09.585Z</time>
</trkpt>
<trkpt lat="30.9527200" lon="34.9810800">
<ele>346.109985</ele>
<time>2021-12-02T20:58:09.585Z</time>
</trkpt>
<trkpt lat="30.9527800" lon="34.9810900">
<ele>345.559998</ele>
<time>2021-12-02T20:58:09.585Z</time>
</trkpt>
<trkpt lat="30.9532000" lon="34.9811000">
<ele>354.919983</ele>
<time>2021-12-02T20:58:09.585Z</time>
</trkpt>
<trkpt lat="30.9532800" lon="34.9811300">
<ele>357.880005</ele>
<time>2021-12-02T20:58:09.585Z</time>
</trkpt>
<trkpt lat="30.9537000" lon="34.9811400">
<ele>362.459991</ele>
<time>2021-12-02T20:58:09.585Z</time>
</trkpt>
<trkpt lat="30.9537900" lon="34.9811700">
<ele>363.670013</ele>
<time>2021-12-02T20:58:09.585Z</time>
</trkpt>
<trkpt lat="30.9540800" lon="34.9811900">
<ele>366.389984</ele>
<time>2021-12-02T20:58:09.585Z</time>
</trkpt>
<trkpt lat="30.9541400" lon="34.9812100">
<ele>366.710022</ele>
<time>2021-12-02T20:58:09.585Z</time>
</trkpt>
<trkpt lat="30.9546400" lon="34.9812300">
<ele>380.700012</ele>
<time>2021-12-02T20:58:09.585Z</time>
</trkpt>
<trkpt lat="30.9547700" lon="34.9812400">
<ele>381.740021</ele>
<time>2021-12-02T20:58:09.585Z</time>
</trkpt>
<trkpt lat="30.9549000" lon="34.9812400">
<ele>383.360016</ele>
<time>2021-12-02T20:58:09.585Z</time>
</trkpt>
<trkpt lat="30.9550300" lon="34.9812600">
<ele>384.290009</ele>
<time>2021-12-02T20:58:09.585Z</time>
</trkpt>
<trkpt lat="30.9551900" lon="34.9812700">
<ele>383.700012</ele>
<time>2021-12-02T20:58:09.585Z</time>
</trkpt>
<trkpt lat="30.9557100" lon="34.9812800">
<ele>380.570007</ele>
<time>2021-12-02T20:58:09.585Z</time>
</trkpt>
<trkpt lat="30.9559100" lon="34.9813100">
<ele>380.139984</ele>
<time>2021-12-02T20:58:09.585Z</time>
</trkpt>
<trkpt lat="30.9559600" lon="34.9813400">
<ele>379.390015</ele>
<time>2021-12-02T20:58:09.585Z</time>
</trkpt>
<trkpt lat="30.9562100" lon="34.9813500">
<ele>378.040009</ele>
<time>2021-12-02T20:58:09.585Z</time>
</trkpt>
<trkpt lat="30.9563100" lon="34.9813800">
<ele>375.519989</ele>
<time>2021-12-02T20:58:09.585Z</time>
</trkpt>
<trkpt lat="30.9566900" lon="34.9814000">
<ele>378.440002</ele>
<time>2021-12-02T20:58:09.585Z</time>
</trkpt>
<trkpt lat="30.9568100" lon="34.9814300">
<ele>381.470001</ele>
<time>2021-12-02T20:58:09.585Z</time>
</trkpt>
<trkpt lat="30.9572200" lon="34.9814400">
<ele>388.609985</ele>
<time>2021-12-02T20:58:09.585Z</time>
</trkpt>
<trkpt lat="30.9573500" lon="34.9814700">
<ele>389.119995</ele>
<time>2021-12-02T20:58:09.585Z</time>
</trkpt>
<trkpt lat="30.9576200" lon="34.9814900">
<ele>390.470001</ele>
<time>2021-12-02T20:58:09.585Z</time>
</trkpt>
<trkpt lat="30.9577100" lon="34.9815200">
<ele>390.559998</ele>
<time>2021-12-02T20:58:09.585Z</time>
</trkpt>
<trkpt lat="30.9579400" lon="34.9815300">
<ele>391.269989</ele>
<time>2021-12-02T20:58:09.585Z</time>
</trkpt>
<trkpt lat="30.9580300" lon="34.9815600">
<ele>391.279999</ele>
<time>2021-12-02T20:58:09.585Z</time>
</trkpt>
<trkpt lat="30.9581700" lon="34.9815700">
<ele>392.600006</ele>
<time>2021-12-02T20:58:09.585Z</time>
</trkpt>
<trkpt lat="30.9582700" lon="34.9816100">
<ele>393.220032</ele>
<time>2021-12-02T20:58:09.585Z</time>
</trkpt>
<trkpt lat="30.9584500" lon="34.9816300">
<ele>395.630005</ele>
<time>2021-12-02T20:58:09.585Z</time>
</trkpt>
<trkpt lat="30.9587800" lon="34.9816900">
<ele>401.319977</ele>
<time>2021-12-02T20:58:09.585Z</time>
</trkpt>
<trkpt lat="30.9590000" lon="34.9817100">
<ele>406.150024</ele>
<time>2021-12-02T20:58:09.585Z</time>
</trkpt>
<trkpt lat="30.9591200" lon="34.9817900">
<ele>408.470001</ele>
<time>2021-12-02T20:58:09.585Z</time>
</trkpt>
<trkpt lat="30.9591700" lon="34.9818500">
<ele>409.380005</ele>
<time>2021-12-02T20:58:09.585Z</time>
</trkpt>
<trkpt lat="30.9592200" lon="34.9818800">
<ele>409.870026</ele>
<time>2021-12-02T20:58:09.585Z</time>
</trkpt>
<trkpt lat="30.9593700" lon="34.9819900">
<ele>411.750000</ele>
<time>2021-12-02T20:58:09.585Z</time>
</trkpt>
<trkpt lat="30.9595100" lon="34.9821300">
<ele>413.160004</ele>
<time>2021-12-02T20:58:09.585Z</time>
</trkpt>
<trkpt lat="30.9596800" lon="34.9823600">
<ele>413.699982</ele>
<time>2021-12-02T20:58:09.585Z</time>
</trkpt>
<trkpt lat="30.9598800" lon="34.9826400">
<ele>416.080017</ele>
<time>2021-12-02T20:58:09.585Z</time>
</trkpt>
<trkpt lat="30.9599700" lon="34.9827100">
<ele>416.700012</ele>
<time>2021-12-02T20:58:09.585Z</time>
</trkpt>
<trkpt lat="30.9600800" lon="34.9826400">
<ele>418.090027</ele>
<time>2021-12-02T20:58:09.585Z</time>
</trkpt>
<trkpt lat="30.9602900" lon="34.9823900">
<ele>420.850006</ele>
<time>2021-12-02T20:58:09.585Z</time>
</trkpt>
<trkpt lat="30.9604300" lon="34.9822700">
<ele>419.249969</ele>
<time>2021-12-02T20:58:09.585Z</time>
</trkpt>
<trkpt lat="30.9604900" lon="34.9822200">
<ele>418.210022</ele>
<time>2021-12-02T20:58:09.585Z</time>
</trkpt>
<trkpt lat="30.9605400" lon="34.9821800">
<ele>417.600006</ele>
<time>2021-12-02T20:58:09.585Z</time>
</trkpt>
<trkpt lat="30.9605900" lon="34.9821600">
<ele>417.850006</ele>
<time>2021-12-02T20:58:09.585Z</time>
</trkpt>
<trkpt lat="30.9607900" lon="34.9821500">
<ele>420.820007</ele>
<time>2021-12-02T20:58:09.585Z</time>
</trkpt>
<trkpt lat="30.9608400" lon="34.9821400">
<ele>421.410004</ele>
<time>2021-12-02T20:58:09.585Z</time>
</trkpt>
<trkpt lat="30.9608900" lon="34.9821700">
<ele>421.619995</ele>
<time>2021-12-02T20:58:09.585Z</time>
</trkpt>
<trkpt lat="30.9608200" lon="34.9824500">
<ele>422.039978</ele>
<time>2021-12-02T20:58:09.585Z</time>
</trkpt>
<trkpt lat="30.9608200" lon="34.9826100">
<ele>421.680023</ele>
<time>2021-12-02T20:58:09.585Z</time>
</trkpt>
<trkpt lat="30.9608500" lon="34.9827700">
<ele>421.139984</ele>
<time>2021-12-02T20:58:09.585Z</time>
</trkpt>
<trkpt lat="30.9609500" lon="34.9829600">
<ele>421.250000</ele>
<time>2021-12-02T20:58:09.585Z</time>
</trkpt>
<trkpt lat="30.9610200" lon="34.9831600">
<ele>421.449982</ele>
<time>2021-12-02T20:58:09.585Z</time>
</trkpt>
<trkpt lat="30.9610400" lon="34.9833600">
<ele>419.619995</ele>
<time>2021-12-02T20:58:09.585Z</time>
</trkpt>
<trkpt lat="30.9610500" lon="34.9835600">
<ele>419.079987</ele>
<time>2021-12-02T20:58:09.585Z</time>
</trkpt>
<trkpt lat="30.9610600" lon="34.9837200">
<ele>418.579987</ele>
<time>2021-12-02T20:58:09.585Z</time>
</trkpt>
<trkpt lat="30.9616400" lon="34.9830100">
<ele>428.100006</ele>
<time>2021-12-02T20:58:09.585Z</time>
</trkpt>
<trkpt lat="30.9617200" lon="34.9829200">
<ele>426.860016</ele>
<time>2021-12-02T20:58:09.585Z</time>
</trkpt>
<trkpt lat="30.9621000" lon="34.9825100">
<ele>424.179993</ele>
<time>2021-12-02T20:58:09.585Z</time>
</trkpt>
<trkpt lat="30.9624300" lon="34.9822600">
<ele>425.729980</ele>
<time>2021-12-02T20:58:09.585Z</time>
</trkpt>
<trkpt lat="30.9630800" lon="34.9819100">
<ele>429.000000</ele>
<time>2021-12-02T20:58:09.585Z</time>
</trkpt>
<trkpt lat="30.9639700" lon="34.9815500">
<ele>431.140015</ele>
<time>2021-12-02T20:58:09.585Z</time>
</trkpt>
<trkpt lat="30.9667900" lon="34.9807000">
<ele>458.379974</ele>
<time>2021-12-02T20:58:09.585Z</time>
</trkpt>
<trkpt lat="30.9670000" lon="34.9806400">
<ele>463.640015</ele>
<time>2021-12-02T20:58:09.585Z</time>
</trkpt>
<trkpt lat="30.9672100" lon="34.9805200">
<ele>468.210022</ele>
<time>2021-12-02T20:58:09.585Z</time>
</trkpt>
<trkpt lat="30.9676700" lon="34.9800400">
<ele>472.419983</ele>
<time>2021-12-02T20:58:09.585Z</time>
</trkpt>
<trkpt lat="30.9681100" lon="34.9796900">
<ele>483.649994</ele>
<time>2021-12-02T20:58:09.585Z</time>
</trkpt>
<trkpt lat="30.9685300" lon="34.9794200">
<ele>492.029999</ele>
<time>2021-12-02T20:58:09.585Z</time>
</trkpt>
<trkpt lat="30.9685700" lon="34.9793200">
<ele>493.180023</ele>
<time>2021-12-02T20:58:09.585Z</time>
</trkpt>
<trkpt lat="30.9685900" lon="34.9792000">
<ele>493.250000</ele>
<time>2021-12-02T20:58:09.585Z</time>
</trkpt>
<trkpt lat="30.9686000" lon="34.9790700">
<ele>493.160004</ele>
<time>2021-12-02T20:58:09.585Z</time>
</trkpt>
<trkpt lat="30.9685900" lon="34.9788000">
<ele>493.099976</ele>
<time>2021-12-02T20:58:09.585Z</time>
</trkpt>
<trkpt lat="30.9686000" lon="34.9786900">
<ele>494.679993</ele>
<time>2021-12-02T20:58:09.585Z</time>
</trkpt>
<trkpt lat="30.9686200" lon="34.9786300">
<ele>496.210022</ele>
<time>2021-12-02T20:58:09.585Z</time>
</trkpt>
<trkpt lat="30.9686900" lon="34.9786200">
<ele>499.609985</ele>
<time>2021-12-02T20:58:09.585Z</time>
</trkpt>
<trkpt lat="30.9687700" lon="34.9786300">
<ele>503.270020</ele>
<time>2021-12-02T20:58:09.585Z</time>
</trkpt>
<trkpt lat="30.9688500" lon="34.9786600">
<ele>506.799988</ele>
<time>2021-12-02T20:58:09.585Z</time>
</trkpt>
<trkpt lat="30.9689200" lon="34.9787700">
<ele>508.690002</ele>
<time>2021-12-02T20:58:09.585Z</time>
</trkpt>
<trkpt lat="30.9689500" lon="34.9788900">
<ele>508.540009</ele>
<time>2021-12-02T20:58:09.585Z</time>
</trkpt>
<trkpt lat="30.9689600" lon="34.9790400">
<ele>508.249969</ele>
<time>2021-12-02T20:58:09.585Z</time>
</trkpt>
<trkpt lat="30.9689600" lon="34.9792300">
<ele>507.730011</ele>
<time>2021-12-02T20:58:09.585Z</time>
</trkpt>
<trkpt lat="30.9686900" lon="34.9797900">
<ele>502.680023</ele>
<time>2021-12-02T20:58:09.585Z</time>
</trkpt>
<trkpt lat="30.9686500" lon="34.9799400">
<ele>503.979980</ele>
<time>2021-12-02T20:58:09.585Z</time>
</trkpt>
<trkpt lat="30.9686300" lon="34.9801100">
<ele>502.770020</ele>
<time>2021-12-02T20:58:09.585Z</time>
</trkpt>
<trkpt lat="30.9686400" lon="34.9803900">
<ele>498.119995</ele>
<time>2021-12-02T20:58:09.585Z</time>
</trkpt>
<trkpt lat="30.9687000" lon="34.9804300">
<ele>498.520020</ele>
<time>2021-12-02T20:58:09.585Z</time>
</trkpt>
<trkpt lat="30.9688000" lon="34.9804300">
<ele>500.549988</ele>
<time>2021-12-02T20:58:09.585Z</time>
</trkpt>
<trkpt lat="30.9688900" lon="34.9803900">
<ele>502.839996</ele>
<time>2021-12-02T20:58:09.585Z</time>
</trkpt>
<trkpt lat="30.9689600" lon="34.9802900">
<ele>506.500000</ele>
<time>2021-12-02T20:58:09.585Z</time>
</trkpt>
<trkpt lat="30.9690000" lon="34.9800700">
<ele>510.390015</ele>
<time>2021-12-02T20:58:09.585Z</time>
</trkpt>
<trkpt lat="30.9690100" lon="34.9799800">
<ele>511.110016</ele>
<time>2021-12-02T20:58:09.585Z</time>
</trkpt>
<trkpt lat="30.9690300" lon="34.9798900">
<ele>510.540009</ele>
<time>2021-12-02T20:58:09.585Z</time>
</trkpt>
<trkpt lat="30.9690800" lon="34.9797700">
<ele>510.459991</ele>
<time>2021-12-02T20:58:09.585Z</time>
</trkpt>
<trkpt lat="30.9693400" lon="34.9793800">
<ele>519.390015</ele>
<time>2021-12-02T20:58:09.585Z</time>
</trkpt>
<trkpt lat="30.9693700" lon="34.9791000">
<ele>522.929993</ele>
<time>2021-12-02T20:58:09.585Z</time>
</trkpt>
<trkpt lat="30.9693700" lon="34.9788700">
<ele>524.500000</ele>
<time>2021-12-02T20:58:09.585Z</time>
</trkpt>
<trkpt lat="30.9693600" lon="34.9786000">
<ele>527.619995</ele>
<time>2021-12-02T20:58:09.585Z</time>
</trkpt>
<trkpt lat="30.9693400" lon="34.9784100">
<ele>529.440002</ele>
<time>2021-12-02T20:58:09.585Z</time>
</trkpt>
<trkpt lat="30.9692600" lon="34.9781800">
<ele>528.830017</ele>
<time>2021-12-02T20:58:09.585Z</time>
</trkpt>
<trkpt lat="30.9691500" lon="34.9780700">
<ele>526.159973</ele>
<time>2021-12-02T20:58:09.585Z</time>
</trkpt>
<trkpt lat="30.9690400" lon="34.9779600">
<ele>525.760010</ele>
<time>2021-12-02T20:58:09.585Z</time>
</trkpt>
<trkpt lat="30.9689200" lon="34.9778200">
<ele>525.830017</ele>
<time>2021-12-02T20:58:09.585Z</time>
</trkpt>
<trkpt lat="30.9689100" lon="34.9777200">
<ele>527.679993</ele>
<time>2021-12-02T20:58:09.585Z</time>
</trkpt>
<trkpt lat="30.9689100" lon="34.9776600">
<ele>528.790039</ele>
<time>2021-12-02T20:58:09.585Z</time>
</trkpt>
<trkpt lat="30.9689200" lon="34.9774200">
<ele>532.380005</ele>
<time>2021-12-02T20:58:09.585Z</time>
</trkpt>
<trkpt lat="30.9689600" lon="34.9772900">
<ele>534.119995</ele>
<time>2021-12-02T20:58:09.585Z</time>
</trkpt>
<trkpt lat="30.9690700" lon="34.9771800">
<ele>537.619995</ele>
<time>2021-12-02T20:58:09.585Z</time>
</trkpt>
<trkpt lat="30.9695400" lon="34.9768000">
<ele>554.979980</ele>
<time>2021-12-02T20:58:09.585Z</time>
</trkpt>
<trkpt lat="30.9695800" lon="34.9767300">
<ele>556.849976</ele>
<time>2021-12-02T20:58:09.585Z</time>
</trkpt>
<trkpt lat="30.9695900" lon="34.9766200">
<ele>556.950012</ele>
<time>2021-12-02T20:58:09.585Z</time>
</trkpt>
<trkpt lat="30.9696000" lon="34.9765100">
<ele>556.589966</ele>
<time>2021-12-02T20:58:09.585Z</time>
</trkpt>
<trkpt lat="30.9696000" lon="34.9763800">
<ele>555.549988</ele>
<time>2021-12-02T20:58:09.585Z</time>
</trkpt>
<trkpt lat="30.9696100" lon="34.9762400">
<ele>553.260010</ele>
<time>2021-12-02T20:58:09.585Z</time>
</trkpt>
<trkpt lat="30.9696300" lon="34.9761500">
<ele>552.429993</ele>
<time>2021-12-02T20:58:09.585Z</time>
</trkpt>
<trkpt lat="30.9696700" lon="34.9761300">
<ele>553.910034</ele>
<time>2021-12-02T20:58:09.585Z</time>
</trkpt>
<trkpt lat="30.9697200" lon="34.9761200">
<ele>556.059998</ele>
<time>2021-12-02T20:58:09.585Z</time>
</trkpt>
<trkpt lat="30.9699800" lon="34.9761200">
<ele>559.000000</ele>
<time>2021-12-02T20:58:09.585Z</time>
</trkpt>
<trkpt lat="30.9700400" lon="34.9761100">
<ele>560.710022</ele>
<time>2021-12-02T20:58:09.585Z</time>
</trkpt>
<trkpt lat="30.9701700" lon="34.9761000">
<ele>566.140015</ele>
<time>2021-12-02T20:58:09.585Z</time>
</trkpt>
<trkpt lat="30.9703100" lon="34.9759700">
<ele>569.970032</ele>
<time>2021-12-02T20:58:09.585Z</time>
</trkpt>
<trkpt lat="30.9704600" lon="34.9756400">
<ele>572.160034</ele>
<time>2021-12-02T20:58:09.585Z</time>
</trkpt>
<trkpt lat="30.9706900" lon="34.9747000">
<ele>563.690002</ele>
<time>2021-12-02T20:58:09.585Z</time>
</trkpt>
<trkpt lat="30.9707700" lon="34.9744400">
<ele>561.239990</ele>
<time>2021-12-02T20:58:09.585Z</time>
</trkpt>
<trkpt lat="30.9708600" lon="34.9743700">
<ele>564.260010</ele>
<time>2021-12-02T20:58:09.585Z</time>
</trkpt>
<trkpt lat="30.9717800" lon="34.9738000">
<ele>583.160034</ele>
<time>2021-12-02T20:58:09.585Z</time>
</trkpt>
<trkpt lat="30.9718700" lon="34.9735700">
<ele>584.700012</ele>
<time>2021-12-02T20:58:09.585Z</time>
</trkpt>
<trkpt lat="30.9718600" lon="34.9733700">
<ele>584.869995</ele>
<time>2021-12-02T20:58:09.585Z</time>
</trkpt>
<trkpt lat="30.9718600" lon="34.9728300">
<ele>583.710022</ele>
<time>2021-12-02T20:58:09.585Z</time>
</trkpt>
<trkpt lat="30.9718100" lon="34.9722400">
<ele>583.130005</ele>
<time>2021-12-02T20:58:09.585Z</time>
</trkpt>
<trkpt lat="30.9718100" lon="34.9722400">
<ele>583.130005</ele>
<time>2021-12-02T20:58:09.585Z</time>
</trkpt>
<trkpt lat="30.9718200" lon="34.9722400">
<ele>583.559998</ele>
<time>2021-12-02T20:58:09.585Z</time>
</trkpt>
<trkpt lat="30.9717400" lon="34.9715500">
<ele>583.000000</ele>
<time>2021-12-02T20:58:09.585Z</time>
</trkpt>
<trkpt lat="30.9717400" lon="34.9715500">
<ele>583.000000</ele>
<time>2021-12-02T20:58:09.585Z</time>
</trkpt>
<trkpt lat="30.9716900" lon="34.9713300">
<ele>580.000000</ele>
<time>2021-12-02T20:58:09.585Z</time>
</trkpt>
<trkpt lat="30.9716900" lon="34.9713300">
<ele>580.000000</ele>
<time>2021-12-02T20:58:09.585Z</time>
</trkpt>
<trkpt lat="30.9716500" lon="34.9713600">
<ele>579.630005</ele>
<time>2021-12-02T20:58:09.585Z</time>
</trkpt>
<trkpt lat="30.9716500" lon="34.9713600">
<ele>579.630005</ele>
<time>2021-12-02T20:58:09.585Z</time>
</trkpt>
<trkpt lat="30.9716500" lon="34.9715900">
<ele>580.659973</ele>
<time>2021-12-02T20:58:09.585Z</time>
</trkpt>
<trkpt lat="30.9716500" lon="34.9715900">
<ele>580.659973</ele>
<time>2021-12-02T20:58:09.585Z</time>
</trkpt>
<trkpt lat="30.9715700" lon="34.9715700">
<ele>580.299988</ele>
<time>2021-12-02T20:58:09.585Z</time>
</trkpt>
<trkpt lat="30.9715700" lon="34.9715700">
<ele>580.299988</ele>
<time>2021-12-02T20:58:09.585Z</time>
</trkpt>
<trkpt lat="30.9715100" lon="34.9716400">
<ele>580.340027</ele>
<time>2021-12-02T20:58:09.585Z</time>
</trkpt>
<trkpt lat="30.9715100" lon="34.9716400">
<ele>580.340027</ele>
<time>2021-12-02T20:58:09.585Z</time>
</trkpt>
<trkpt lat="30.9712800" lon="34.9720400">
<ele>578.100037</ele>
<time>2021-12-02T20:58:09.585Z</time>
</trkpt>
<trkpt lat="30.9711700" lon="34.9722100">
<ele>579.440002</ele>
<time>2021-12-02T20:58:09.585Z</time>
</trkpt>
<trkpt lat="30.9709500" lon="34.9723500">
<ele>579.489990</ele>
<time>2021-12-02T20:58:09.585Z</time>
</trkpt>
<trkpt lat="30.9707700" lon="34.9722900">
<ele>584.900024</ele>
<time>2021-12-02T20:58:09.585Z</time>
</trkpt>
<trkpt lat="30.9705500" lon="34.9723300">
<ele>591.519958</ele>
<time>2021-12-02T20:58:09.585Z</time>
</trkpt>
<trkpt lat="30.9703200" lon="34.9723000">
<ele>592.950012</ele>
<time>2021-12-02T20:58:09.585Z</time>
</trkpt>
<trkpt lat="30.9702100" lon="34.9722600">
<ele>593.969971</ele>
<time>2021-12-02T20:58:09.585Z</time>
</trkpt>
<trkpt lat="30.9698900" lon="34.9720500">
<ele>597.869995</ele>
<time>2021-12-02T20:58:09.585Z</time>
</trkpt>
<trkpt lat="30.9696800" lon="34.9720100">
<ele>591.349976</ele>
<time>2021-12-02T20:58:09.585Z</time>
</trkpt>
<trkpt lat="30.9694100" lon="34.9718600">
<ele>587.700012</ele>
<time>2021-12-02T20:58:09.585Z</time>
</trkpt>
<trkpt lat="30.9692800" lon="34.9717600">
<ele>588.359985</ele>
<time>2021-12-02T20:58:09.585Z</time>
</trkpt>
<trkpt lat="30.9691400" lon="34.9714600">
<ele>589.989990</ele>
<time>2021-12-02T20:58:09.585Z</time>
</trkpt>
<trkpt lat="30.9691000" lon="34.9712200">
<ele>589.190002</ele>
<time>2021-12-02T20:58:09.585Z</time>
</trkpt>
<trkpt lat="30.9690300" lon="34.9711500">
<ele>589.059998</ele>
<time>2021-12-02T20:58:09.585Z</time>
</trkpt>
<trkpt lat="30.9688600" lon="34.9711100">
<ele>590.220032</ele>
<time>2021-12-02T20:58:09.585Z</time>
</trkpt>
<trkpt lat="30.9687700" lon="34.9710100">
<ele>591.899963</ele>
<time>2021-12-02T20:58:09.585Z</time>
</trkpt>
<trkpt lat="30.9685800" lon="34.9708700">
<ele>595.849976</ele>
<time>2021-12-02T20:58:09.585Z</time>
</trkpt>
<trkpt lat="30.9682000" lon="34.9710200">
<ele>598.169983</ele>
<time>2021-12-02T20:58:09.585Z</time>
</trkpt>
<trkpt lat="30.9679700" lon="34.9710000">
<ele>599.229980</ele>
<time>2021-12-02T20:58:09.585Z</time>
</trkpt>
<trkpt lat="30.9675900" lon="34.9705300">
<ele>611.940002</ele>
<time>2021-12-02T20:58:09.585Z</time>
</trkpt>
<trkpt lat="30.9673900" lon="34.9704600">
<ele>614.000000</ele>
<time>2021-12-02T20:58:09.585Z</time>
</trkpt>
<trkpt lat="30.9671700" lon="34.9704300">
<ele>614.359985</ele>
<time>2021-12-02T20:58:09.585Z</time>
</trkpt>
<trkpt lat="30.9667600" lon="34.9704100">
<ele>616.309998</ele>
<time>2021-12-02T20:58:09.585Z</time>
</trkpt>
<trkpt lat="30.9667500" lon="34.9704000">
<ele>616.359985</ele>
<time>2021-12-02T20:58:09.585Z</time>
</trkpt>
<trkpt lat="30.9667500" lon="34.9704000">
<ele>616.359985</ele>
<time>2021-12-02T20:58:09.585Z</time>
</trkpt>
<trkpt lat="30.9667100" lon="34.9703400">
<ele>616.599976</ele>
<time>2021-12-02T20:58:09.585Z</time>
</trkpt>
<trkpt lat="30.9667100" lon="34.9703400">
<ele>616.599976</ele>
<time>2021-12-02T20:58:09.585Z</time>
</trkpt>
<trkpt lat="30.9666800" lon="34.9702000">
<ele>617.919983</ele>
<time>2021-12-02T20:58:09.585Z</time>
</trkpt>
<trkpt lat="30.9666800" lon="34.9702000">
<ele>617.919983</ele>
<time>2021-12-02T20:58:09.585Z</time>
</trkpt>
<trkpt lat="30.9666000" lon="34.9693500">
<ele>623.320007</ele>
<time>2021-12-02T20:58:09.585Z</time>
</trkpt>
<trkpt lat="30.9666000" lon="34.9693500">
<ele>623.320007</ele>
<time>2021-12-02T20:58:09.585Z</time>
</trkpt>
<trkpt lat="30.9665900" lon="34.9692200">
<ele>622.420044</ele>
<time>2021-12-02T20:58:09.585Z</time>
</trkpt>
<trkpt lat="30.9665900" lon="34.9692200">
<ele>622.420044</ele>
<time>2021-12-02T20:58:09.585Z</time>
</trkpt>
<trkpt lat="30.9666100" lon="34.9691700">
<ele>621.460022</ele>
<time>2021-12-02T20:58:09.585Z</time>
</trkpt>
<trkpt lat="30.9666100" lon="34.9691700">
<ele>621.460022</ele>
<time>2021-12-02T20:58:09.585Z</time>
</trkpt>
<trkpt lat="30.9666500" lon="34.9691400">
<ele>620.309998</ele>
<time>2021-12-02T20:58:09.585Z</time>
</trkpt>
<trkpt lat="30.9666500" lon="34.9691400">
<ele>620.309998</ele>
<time>2021-12-02T20:58:09.585Z</time>
</trkpt>
<trkpt lat="30.9666900" lon="34.9691100">
<ele>619.479980</ele>
<time>2021-12-02T20:58:09.585Z</time>
</trkpt>
<trkpt lat="30.9666900" lon="34.9691100">
<ele>619.479980</ele>
<time>2021-12-02T20:58:09.585Z</time>
</trkpt>
<trkpt lat="30.9667200" lon="34.9690400">
<ele>618.859985</ele>
<time>2021-12-02T20:58:09.585Z</time>
</trkpt>
<trkpt lat="30.9667200" lon="34.9690400">
<ele>618.859985</ele>
<time>2021-12-02T20:58:09.585Z</time>
</trkpt>
<trkpt lat="30.9667500" lon="34.9687600">
<ele>618.700012</ele>
<time>2021-12-02T20:58:09.585Z</time>
</trkpt>
<trkpt lat="30.9667500" lon="34.9687600">
<ele>618.700012</ele>
<time>2021-12-02T20:58:09.585Z</time>
</trkpt>
<trkpt lat="30.9666000" lon="34.9678300">
<ele>619.769958</ele>
<time>2021-12-02T20:58:09.585Z</time>
</trkpt>
<trkpt lat="30.9666000" lon="34.9678300">
<ele>619.769958</ele>
<time>2021-12-02T20:58:09.585Z</time>
</trkpt>
<trkpt lat="30.9666300" lon="34.9677400">
<ele>618.640015</ele>
<time>2021-12-02T20:58:09.585Z</time>
</trkpt>
<trkpt lat="30.9666300" lon="34.9677400">
<ele>618.640015</ele>
<time>2021-12-02T20:58:09.585Z</time>
</trkpt>
<trkpt lat="30.9667000" lon="34.9676500">
<ele>617.479980</ele>
<time>2021-12-02T20:58:09.585Z</time>
</trkpt>
<trkpt lat="30.9667000" lon="34.9676500">
<ele>617.479980</ele>
<time>2021-12-02T20:58:09.585Z</time>
</trkpt>
<trkpt lat="30.9667000" lon="34.9676200">
<ele>617.380005</ele>
<time>2021-12-02T20:58:09.585Z</time>
</trkpt>
<trkpt lat="30.9667000" lon="34.9676200">
<ele>617.380005</ele>
<time>2021-12-02T20:58:09.585Z</time>
</trkpt>
<trkpt lat="30.9666300" lon="34.9674200">
<ele>618.369995</ele>
<time>2021-12-02T20:58:09.585Z</time>
</trkpt>
<trkpt lat="30.9666300" lon="34.9674200">
<ele>618.369995</ele>
<time>2021-12-02T20:58:09.585Z</time>
</trkpt>
<trkpt lat="30.9665500" lon="34.9672900">
<ele>620.100037</ele>
<time>2021-12-02T20:58:09.585Z</time>
</trkpt>
<trkpt lat="30.9665500" lon="34.9672900">
<ele>620.100037</ele>
<time>2021-12-02T20:58:09.585Z</time>
</trkpt>
<trkpt lat="30.9665200" lon="34.9671700">
<ele>620.719971</ele>
<time>2021-12-02T20:58:09.585Z</time>
</trkpt>
<trkpt lat="30.9665200" lon="34.9671700">
<ele>620.719971</ele>
<time>2021-12-02T20:58:09.585Z</time>
</trkpt>
<trkpt lat="30.9665200" lon="34.9671200">
<ele>620.900024</ele>
<time>2021-12-02T20:58:09.585Z</time>
</trkpt>
<trkpt lat="30.9665200" lon="34.9671200">
<ele>620.900024</ele>
<time>2021-12-02T20:58:09.585Z</time>
</trkpt>
<trkpt lat="30.9664700" lon="34.9670200">
<ele>621.440002</ele>
<time>2021-12-02T20:58:09.585Z</time>
</trkpt>
<trkpt lat="30.9664700" lon="34.9670200">
<ele>621.440002</ele>
<time>2021-12-02T20:58:09.585Z</time>
</trkpt>
<trkpt lat="30.9664700" lon="34.9669800">
<ele>621.580017</ele>
<time>2021-12-02T20:58:09.585Z</time>
</trkpt>
<trkpt lat="30.9664700" lon="34.9669800">
<ele>621.580017</ele>
<time>2021-12-02T20:58:09.585Z</time>
</trkpt>
<trkpt lat="30.9664300" lon="34.9669200">
<ele>622.089966</ele>
<time>2021-12-02T20:58:09.585Z</time>
</trkpt>
<trkpt lat="30.9664300" lon="34.9669200">
<ele>622.089966</ele>
<time>2021-12-02T20:58:09.585Z</time>
</trkpt>
<trkpt lat="30.9664400" lon="34.9668200">
<ele>623.000000</ele>
<time>2021-12-02T20:58:09.585Z</time>
</trkpt>
<trkpt lat="30.9664400" lon="34.9668200">
<ele>623.000000</ele>
<time>2021-12-02T20:58:09.585Z</time>
</trkpt>
<trkpt lat="30.9661800" lon="34.9667700">
<ele>627.069946</ele>
<time>2021-12-02T20:58:09.585Z</time>
</trkpt>
<trkpt lat="30.9661800" lon="34.9667700">
<ele>627.069946</ele>
<time>2021-12-02T20:58:09.585Z</time>
</trkpt>
<trkpt lat="30.9661700" lon="34.9667300">
<ele>626.970032</ele>
<time>2021-12-02T20:58:09.585Z</time>
</trkpt>
<trkpt lat="30.9660600" lon="34.9659300">
<ele>617.179993</ele>
<time>2021-12-02T20:58:09.585Z</time>
</trkpt>
<trkpt lat="30.9660300" lon="34.9658800">
<ele>617.029968</ele>
<time>2021-12-02T20:58:09.585Z</time>
</trkpt>
<trkpt lat="30.9659800" lon="34.9658500">
<ele>617.540039</ele>
<time>2021-12-02T20:58:09.585Z</time>
</trkpt>
<trkpt lat="30.9659400" lon="34.9658500">
<ele>618.250000</ele>
<time>2021-12-02T20:58:09.585Z</time>
</trkpt>
<trkpt lat="30.9656300" lon="34.9659300">
<ele>622.640015</ele>
<time>2021-12-02T20:58:09.585Z</time>
</trkpt>
<trkpt lat="30.9653000" lon="34.9659400">
<ele>622.109985</ele>
<time>2021-12-02T20:58:09.585Z</time>
</trkpt>
<trkpt lat="30.9651600" lon="34.9659300">
<ele>620.729980</ele>
<time>2021-12-02T20:58:09.585Z</time>
</trkpt>
<trkpt lat="30.9651000" lon="34.9659200">
<ele>620.080017</ele>
<time>2021-12-02T20:58:09.585Z</time>
</trkpt>
<trkpt lat="30.9650700" lon="34.9658700">
<ele>619.760010</ele>
<time>2021-12-02T20:58:09.585Z</time>
</trkpt>
<trkpt lat="30.9650600" lon="34.9657900">
<ele>619.460022</ele>
<time>2021-12-02T20:58:09.585Z</time>
</trkpt>
<trkpt lat="30.9650700" lon="34.9656500">
<ele>618.929993</ele>
<time>2021-12-02T20:58:09.585Z</time>
</trkpt>
<trkpt lat="30.9652000" lon="34.9651500">
<ele>617.710022</ele>
<time>2021-12-02T20:58:09.585Z</time>
</trkpt>
<trkpt lat="30.9652200" lon="34.9649800">
<ele>617.309998</ele>
<time>2021-12-02T20:58:09.585Z</time>
</trkpt>
<trkpt lat="30.9652300" lon="34.9649000">
<ele>616.859985</ele>
<time>2021-12-02T20:58:09.585Z</time>
</trkpt>
<trkpt lat="30.9652300" lon="34.9648300">
<ele>616.519958</ele>
<time>2021-12-02T20:58:09.585Z</time>
</trkpt>
<trkpt lat="30.9652200" lon="34.9648000">
<ele>616.400024</ele>
<time>2021-12-02T20:58:09.585Z</time>
</trkpt>
<trkpt lat="30.9651800" lon="34.9647900">
<ele>616.419983</ele>
<time>2021-12-02T20:58:09.585Z</time>
</trkpt>
<trkpt lat="30.9650100" lon="34.9648100">
<ele>616.929993</ele>
<time>2021-12-02T20:58:09.585Z</time>
</trkpt>
<trkpt lat="30.9649200" lon="34.9648100">
<ele>617.329956</ele>
<time>2021-12-02T20:58:09.585Z</time>
</trkpt>
<trkpt lat="30.9643600" lon="34.9648000">
<ele>625.820007</ele>
<time>2021-12-02T20:58:09.585Z</time>
</trkpt>
<trkpt lat="30.9643000" lon="34.9647800">
<ele>627.789978</ele>
<time>2021-12-02T20:58:09.585Z</time>
</trkpt>
<trkpt lat="30.9642700" lon="34.9647400">
<ele>628.690063</ele>
<time>2021-12-02T20:58:09.585Z</time>
</trkpt>
<trkpt lat="30.9641300" lon="34.9645200">
<ele>631.900024</ele>
<time>2021-12-02T20:58:09.585Z</time>
</trkpt>
<trkpt lat="30.9641000" lon="34.9644800">
<ele>632.299988</ele>
<time>2021-12-02T20:58:09.585Z</time>
</trkpt>
<trkpt lat="30.9640800" lon="34.9642300">
<ele>632.610046</ele>
<time>2021-12-02T20:58:09.585Z</time>
</trkpt>
<trkpt lat="30.9640800" lon="34.9641600">
<ele>632.599976</ele>
<time>2021-12-02T20:58:09.585Z</time>
</trkpt>
<trkpt lat="30.9641000" lon="34.9640600">
<ele>632.099976</ele>
<time>2021-12-02T20:58:09.585Z</time>
</trkpt>
<trkpt lat="30.9641600" lon="34.9638800">
<ele>631.109985</ele>
<time>2021-12-02T20:58:09.585Z</time>
</trkpt>
<trkpt lat="30.9641800" lon="34.9638100">
<ele>631.319946</ele>
<time>2021-12-02T20:58:09.585Z</time>
</trkpt>
<trkpt lat="30.9641800" lon="34.9636600">
<ele>632.480042</ele>
<time>2021-12-02T20:58:09.585Z</time>
</trkpt>
<trkpt lat="30.9641800" lon="34.9633300">
<ele>632.979980</ele>
<time>2021-12-02T20:58:09.585Z</time>
</trkpt>
<trkpt lat="30.9641900" lon="34.9631400">
<ele>637.120056</ele>
<time>2021-12-02T20:58:09.585Z</time>
</trkpt>
<trkpt lat="30.9642000" lon="34.9630700">
<ele>638.679993</ele>
<time>2021-12-02T20:58:09.585Z</time>
</trkpt>
<trkpt lat="30.9643400" lon="34.9628000">
<ele>636.119995</ele>
<time>2021-12-02T20:58:09.585Z</time>
</trkpt>
<trkpt lat="30.9644100" lon="34.9627600">
<ele>635.929993</ele>
<time>2021-12-02T20:58:09.585Z</time>
</trkpt>
<trkpt lat="30.9644600" lon="34.9627400">
<ele>635.220032</ele>
<time>2021-12-02T20:58:09.585Z</time>
</trkpt>
<trkpt lat="30.9647500" lon="34.9627700">
<ele>630.000000</ele>
<time>2021-12-02T20:58:09.585Z</time>
</trkpt>
<trkpt lat="30.9648100" lon="34.9627500">
<ele>627.910034</ele>
<time>2021-12-02T20:58:09.585Z</time>
</trkpt>
<trkpt lat="30.9648900" lon="34.9627200">
<ele>625.359985</ele>
<time>2021-12-02T20:58:09.585Z</time>
</trkpt>
<trkpt lat="30.9651200" lon="34.9624500">
<ele>621.520020</ele>
<time>2021-12-02T20:58:09.585Z</time>
</trkpt>
<trkpt lat="30.9652600" lon="34.9622500">
<ele>619.290039</ele>
<time>2021-12-02T20:58:09.585Z</time>
</trkpt>
<trkpt lat="30.9654000" lon="34.9621900">
<ele>619.869995</ele>
<time>2021-12-02T20:58:09.585Z</time>
</trkpt>
<trkpt lat="30.9654400" lon="34.9621400">
<ele>619.520020</ele>
<time>2021-12-02T20:58:09.585Z</time>
</trkpt>
<trkpt lat="30.9654700" lon="34.9620200">
<ele>617.880005</ele>
<time>2021-12-02T20:58:09.585Z</time>
</trkpt>
<trkpt lat="30.9654500" lon="34.9616700">
<ele>612.910034</ele>
<time>2021-12-02T20:58:09.585Z</time>
</trkpt>
<trkpt lat="30.9654800" lon="34.9612200">
<ele>609.690002</ele>
<time>2021-12-02T20:58:09.585Z</time>
</trkpt>
<trkpt lat="30.9655100" lon="34.9610300">
<ele>608.010010</ele>
<time>2021-12-02T20:58:09.585Z</time>
</trkpt>
<trkpt lat="30.9655300" lon="34.9608400">
<ele>606.070007</ele>
<time>2021-12-02T20:58:09.585Z</time>
</trkpt>
<trkpt lat="30.9655300" lon="34.9607400">
<ele>605.599976</ele>
<time>2021-12-02T20:58:09.585Z</time>
</trkpt>
<trkpt lat="30.9654900" lon="34.9602100">
<ele>602.399963</ele>
<time>2021-12-02T20:58:09.585Z</time>
</trkpt>
<trkpt lat="30.9654900" lon="34.9600800">
<ele>601.599976</ele>
<time>2021-12-02T20:58:09.585Z</time>
</trkpt>
<trkpt lat="30.9655000" lon="34.9599000">
<ele>600.540039</ele>
<time>2021-12-02T20:58:09.585Z</time>
</trkpt>
<trkpt lat="30.9655000" lon="34.9596100">
<ele>597.059998</ele>
<time>2021-12-02T20:58:09.585Z</time>
</trkpt>
<trkpt lat="30.9655200" lon="34.9592500">
<ele>590.039978</ele>
<time>2021-12-02T20:58:09.585Z</time>
</trkpt>
<trkpt lat="30.9655300" lon="34.9590200">
<ele>585.340027</ele>
<time>2021-12-02T20:58:09.585Z</time>
</trkpt>
<trkpt lat="30.9655600" lon="34.9589200">
<ele>583.710022</ele>
<time>2021-12-02T20:58:09.585Z</time>
</trkpt>
<trkpt lat="30.9656600" lon="34.9587500">
<ele>581.250000</ele>
<time>2021-12-02T20:58:09.585Z</time>
</trkpt>
<trkpt lat="30.9657000" lon="34.9587000">
<ele>580.639954</ele>
<time>2021-12-02T20:58:09.585Z</time>
</trkpt>
<trkpt lat="30.9657800" lon="34.9586100">
<ele>579.610046</ele>
<time>2021-12-02T20:58:09.585Z</time>
</trkpt>
<trkpt lat="30.9658700" lon="34.9584700">
<ele>578.940002</ele>
<time>2021-12-02T20:58:09.585Z</time>
</trkpt>
<trkpt lat="30.9658900" lon="34.9583600">
<ele>578.080017</ele>
<time>2021-12-02T20:58:09.585Z</time>
</trkpt>
<trkpt lat="30.9659100" lon="34.9581400">
<ele>578.799988</ele>
<time>2021-12-02T20:58:09.585Z</time>
</trkpt>
<trkpt lat="30.9659200" lon="34.9580400">
<ele>579.080017</ele>
<time>2021-12-02T20:58:09.585Z</time>
</trkpt>
<trkpt lat="30.9663300" lon="34.9575400">
<ele>572.750000</ele>
<time>2021-12-02T20:58:09.585Z</time>
</trkpt>
<trkpt lat="30.9665100" lon="34.9574700">
<ele>571.419983</ele>
<time>2021-12-02T20:58:09.585Z</time>
</trkpt>
<trkpt lat="30.9665900" lon="34.9574000">
<ele>570.419983</ele>
<time>2021-12-02T20:58:09.585Z</time>
</trkpt>
<trkpt lat="30.9666600" lon="34.9573100">
<ele>568.250000</ele>
<time>2021-12-02T20:58:09.585Z</time>
</trkpt>
<trkpt lat="30.9668400" lon="34.9569300">
<ele>565.159973</ele>
<time>2021-12-02T20:58:09.585Z</time>
</trkpt>
<trkpt lat="30.9668800" lon="34.9568600">
<ele>565.559998</ele>
<time>2021-12-02T20:58:09.585Z</time>
</trkpt>
<trkpt lat="30.9670000" lon="34.9567700">
<ele>564.070007</ele>
<time>2021-12-02T20:58:09.585Z</time>
</trkpt>
<trkpt lat="30.9674000" lon="34.9566000">
<ele>552.290039</ele>
<time>2021-12-02T20:58:09.585Z</time>
</trkpt>
<trkpt lat="30.9678000" lon="34.9565800">
<ele>545.849976</ele>
<time>2021-12-02T20:58:09.585Z</time>
</trkpt>
<trkpt lat="30.9679400" lon="34.9565800">
<ele>544.489990</ele>
<time>2021-12-02T20:58:09.585Z</time>
</trkpt>
<trkpt lat="30.9681100" lon="34.9565600">
<ele>543.139954</ele>
<time>2021-12-02T20:58:09.585Z</time>
</trkpt>
<trkpt lat="30.9684200" lon="34.9565600">
<ele>543.059998</ele>
<time>2021-12-02T20:58:09.585Z</time>
</trkpt>
<trkpt lat="30.9686400" lon="34.9565200">
<ele>544.460022</ele>
<time>2021-12-02T20:58:09.585Z</time>
</trkpt>
<trkpt lat="30.9688300" lon="34.9565000">
<ele>542.839966</ele>
<time>2021-12-02T20:58:09.585Z</time>
</trkpt>
<trkpt lat="30.9690400" lon="34.9564300">
<ele>544.469971</ele>
<time>2021-12-02T20:58:09.585Z</time>
</trkpt>
<trkpt lat="30.9692300" lon="34.9564000">
<ele>548.609985</ele>
<time>2021-12-02T20:58:09.585Z</time>
</trkpt>
<trkpt lat="30.9693000" lon="34.9563700">
<ele>550.260010</ele>
<time>2021-12-02T20:58:09.585Z</time>
</trkpt>
<trkpt lat="30.9693800" lon="34.9562700">
<ele>551.159973</ele>
<time>2021-12-02T20:58:09.585Z</time>
</trkpt>
<trkpt lat="30.9694800" lon="34.9560600">
<ele>551.350037</ele>
<time>2021-12-02T20:58:09.585Z</time>
</trkpt>
<trkpt lat="30.9696700" lon="34.9558400">
<ele>551.809998</ele>
<time>2021-12-02T20:58:09.585Z</time>
</trkpt>
<trkpt lat="30.9697400" lon="34.9556100">
<ele>552.580017</ele>
<time>2021-12-02T20:58:09.585Z</time>
</trkpt>
<trkpt lat="30.9697500" lon="34.9554900">
<ele>552.570007</ele>
<time>2021-12-02T20:58:09.585Z</time>
</trkpt>
<trkpt lat="30.9697600" lon="34.9553000">
<ele>551.440002</ele>
<time>2021-12-02T20:58:09.585Z</time>
</trkpt>
<trkpt lat="30.9697600" lon="34.9551900">
<ele>550.820007</ele>
<time>2021-12-02T20:58:09.585Z</time>
</trkpt>
<trkpt lat="30.9696900" lon="34.9547500">
<ele>548.010010</ele>
<time>2021-12-02T20:58:09.585Z</time>
</trkpt>
<trkpt lat="30.9696700" lon="34.9544600">
<ele>548.159973</ele>
<time>2021-12-02T20:58:09.585Z</time>
</trkpt>
<trkpt lat="30.9696400" lon="34.9543600">
<ele>549.419983</ele>
<time>2021-12-02T20:58:09.585Z</time>
</trkpt>
<trkpt lat="30.9695700" lon="34.9542100">
<ele>551.429993</ele>
<time>2021-12-02T20:58:09.585Z</time>
</trkpt>
<trkpt lat="30.9695300" lon="34.9540700">
<ele>552.340027</ele>
<time>2021-12-02T20:58:09.585Z</time>
</trkpt>
<trkpt lat="30.9695400" lon="34.9538800">
<ele>552.690002</ele>
<time>2021-12-02T20:58:09.585Z</time>
</trkpt>
<trkpt lat="30.9695200" lon="34.9537200">
<ele>555.030029</ele>
<time>2021-12-02T20:58:09.585Z</time>
</trkpt>
<trkpt lat="30.9694900" lon="34.9536100">
<ele>557.380005</ele>
<time>2021-12-02T20:58:09.585Z</time>
</trkpt>
<trkpt lat="30.9693900" lon="34.9533300">
<ele>563.409973</ele>
<time>2021-12-02T20:58:09.585Z</time>
</trkpt>
<trkpt lat="30.9693600" lon="34.9532500">
<ele>564.090027</ele>
<time>2021-12-02T20:58:09.585Z</time>
</trkpt>
<trkpt lat="30.9693500" lon="34.9527800">
<ele>567.320007</ele>
<time>2021-12-02T20:58:09.585Z</time>
</trkpt>
<trkpt lat="30.9693300" lon="34.9526700">
<ele>567.000000</ele>
<time>2021-12-02T20:58:09.585Z</time>
</trkpt>
<trkpt lat="30.9692000" lon="34.9523600">
<ele>564.799988</ele>
<time>2021-12-02T20:58:09.585Z</time>
</trkpt>
<trkpt lat="30.9690800" lon="34.9522100">
<ele>564.299988</ele>
<time>2021-12-02T20:58:09.585Z</time>
</trkpt>
<trkpt lat="30.9689200" lon="34.9521000">
<ele>563.470032</ele>
<time>2021-12-02T20:58:09.585Z</time>
</trkpt>
<trkpt lat="30.9688500" lon="34.9520700">
<ele>563.609985</ele>
<time>2021-12-02T20:58:09.585Z</time>
</trkpt>
<trkpt lat="30.9688600" lon="34.9518100">
<ele>562.220032</ele>
<time>2021-12-02T20:58:09.585Z</time>
</trkpt>
<trkpt lat="30.9688300" lon="34.9516800">
<ele>560.799988</ele>
<time>2021-12-02T20:58:09.585Z</time>
</trkpt>
<trkpt lat="30.9687100" lon="34.9512500">
<ele>566.010010</ele>
<time>2021-12-02T20:58:09.585Z</time>
</trkpt>
<trkpt lat="30.9686400" lon="34.9508200">
<ele>572.380005</ele>
<time>2021-12-02T20:58:09.585Z</time>
</trkpt>
<trkpt lat="30.9685600" lon="34.9505200">
<ele>574.960022</ele>
<time>2021-12-02T20:58:09.585Z</time>
</trkpt>
<trkpt lat="30.9683900" lon="34.9501600">
<ele>576.780029</ele>
<time>2021-12-02T20:58:09.585Z</time>
</trkpt>
<trkpt lat="30.9682100" lon="34.9498500">
<ele>572.359985</ele>
<time>2021-12-02T20:58:09.585Z</time>
</trkpt>
<trkpt lat="30.9681100" lon="34.9495600">
<ele>569.179993</ele>
<time>2021-12-02T20:58:09.585Z</time>
</trkpt>
<trkpt lat="30.9679200" lon="34.9492300">
<ele>561.869995</ele>
<time>2021-12-02T20:58:09.585Z</time>
</trkpt>
<trkpt lat="30.9677800" lon="34.9487700">
<ele>556.580017</ele>
<time>2021-12-02T20:58:09.585Z</time>
</trkpt>
<trkpt lat="30.9677600" lon="34.9486600">
<ele>556.049988</ele>
<time>2021-12-02T20:58:09.585Z</time>
</trkpt>
<trkpt lat="30.9677600" lon="34.9484900">
<ele>555.349976</ele>
<time>2021-12-02T20:58:09.585Z</time>
</trkpt>
<trkpt lat="30.9677900" lon="34.9483900">
<ele>555.349976</ele>
<time>2021-12-02T20:58:09.585Z</time>
</trkpt>
<trkpt lat="30.9680300" lon="34.9481400">
<ele>555.280029</ele>
<time>2021-12-02T20:58:09.585Z</time>
</trkpt>
<trkpt lat="30.9680600" lon="34.9480400">
<ele>553.880005</ele>
<time>2021-12-02T20:58:09.585Z</time>
</trkpt>
<trkpt lat="30.9680600" lon="34.9477500">
<ele>550.889954</ele>
<time>2021-12-02T20:58:09.585Z</time>
</trkpt>
<trkpt lat="30.9680400" lon="34.9474000">
<ele>548.830017</ele>
<time>2021-12-02T20:58:09.585Z</time>
</trkpt>
<trkpt lat="30.9679900" lon="34.9470500">
<ele>549.890015</ele>
<time>2021-12-02T20:58:09.585Z</time>
</trkpt>
<trkpt lat="30.9679800" lon="34.9468500">
<ele>550.359985</ele>
<time>2021-12-02T20:58:09.585Z</time>
</trkpt>
<trkpt lat="30.9679900" lon="34.9466500">
<ele>549.880005</ele>
<time>2021-12-02T20:58:09.585Z</time>
</trkpt>
<trkpt lat="30.9680000" lon="34.9463200">
<ele>547.700012</ele>
<time>2021-12-02T20:58:09.585Z</time>
</trkpt>
<trkpt lat="30.9681600" lon="34.9452500">
<ele>541.169983</ele>
<time>2021-12-02T20:58:09.585Z</time>
</trkpt>
<trkpt lat="30.9681900" lon="34.9451300">
<ele>540.080017</ele>
<time>2021-12-02T20:58:09.585Z</time>
</trkpt>
<trkpt lat="30.9682300" lon="34.9450300">
<ele>539.280029</ele>
<time>2021-12-02T20:58:09.585Z</time>
</trkpt>
<trkpt lat="30.9685000" lon="34.9446800">
<ele>540.460022</ele>
<time>2021-12-02T20:58:09.585Z</time>
</trkpt>
<trkpt lat="30.9686800" lon="34.9443600">
<ele>542.700012</ele>
<time>2021-12-02T20:58:09.585Z</time>
</trkpt>
<trkpt lat="30.9687000" lon="34.9442600">
<ele>543.409973</ele>
<time>2021-12-02T20:58:09.585Z</time>
</trkpt>
<trkpt lat="30.9687100" lon="34.9440700">
<ele>545.559998</ele>
<time>2021-12-02T20:58:09.585Z</time>
</trkpt>
<trkpt lat="30.9687200" lon="34.9440000">
<ele>546.710022</ele>
<time>2021-12-02T20:58:09.585Z</time>
</trkpt>
<trkpt lat="30.9687100" lon="34.9435900">
<ele>549.529968</ele>
<time>2021-12-02T20:58:09.585Z</time>
</trkpt>
<trkpt lat="30.9687100" lon="34.9431900">
<ele>544.919983</ele>
<time>2021-12-02T20:58:09.585Z</time>
</trkpt>
<trkpt lat="30.9687300" lon="34.9430000">
<ele>541.429993</ele>
<time>2021-12-02T20:58:09.585Z</time>
</trkpt>
<trkpt lat="30.9687600" lon="34.9429000">
<ele>539.440002</ele>
<time>2021-12-02T20:58:09.585Z</time>
</trkpt>
<trkpt lat="30.9689000" lon="34.9427300">
<ele>537.880005</ele>
<time>2021-12-02T20:58:09.585Z</time>
</trkpt>
<trkpt lat="30.9690500" lon="34.9426800">
<ele>538.640015</ele>
<time>2021-12-02T20:58:09.585Z</time>
</trkpt>
<trkpt lat="30.9691500" lon="34.9426600">
<ele>539.309998</ele>
<time>2021-12-02T20:58:09.585Z</time>
</trkpt>
<trkpt lat="30.9695500" lon="34.9426400">
<ele>533.200012</ele>
<time>2021-12-02T20:58:09.585Z</time>
</trkpt>
<trkpt lat="30.9700300" lon="34.9426800">
<ele>524.500000</ele>
<time>2021-12-02T20:58:09.585Z</time>
</trkpt>
<trkpt lat="30.9703600" lon="34.9426700">
<ele>521.210022</ele>
<time>2021-12-02T20:58:09.585Z</time>
</trkpt>
<trkpt lat="30.9706400" lon="34.9426300">
<ele>524.359985</ele>
<time>2021-12-02T20:58:09.585Z</time>
</trkpt>
<trkpt lat="30.9708800" lon="34.9425300">
<ele>525.739990</ele>
<time>2021-12-02T20:58:09.585Z</time>
</trkpt>
<trkpt lat="30.9712200" lon="34.9424300">
<ele>528.459961</ele>
<time>2021-12-02T20:58:09.585Z</time>
</trkpt>
<trkpt lat="30.9714700" lon="34.9423700">
<ele>531.920044</ele>
<time>2021-12-02T20:58:09.585Z</time>
</trkpt>
<trkpt lat="30.9717500" lon="34.9423500">
<ele>534.159973</ele>
<time>2021-12-02T20:58:09.585Z</time>
</trkpt>
<trkpt lat="30.9720000" lon="34.9423700">
<ele>533.859985</ele>
<time>2021-12-02T20:58:09.585Z</time>
</trkpt>
<trkpt lat="30.9724500" lon="34.9425600">
<ele>527.150024</ele>
<time>2021-12-02T20:58:09.585Z</time>
</trkpt>
<trkpt lat="30.9726800" lon="34.9425900">
<ele>523.830017</ele>
<time>2021-12-02T20:58:09.585Z</time>
</trkpt>
<trkpt lat="30.9727500" lon="34.9425900">
<ele>522.729980</ele>
<time>2021-12-02T20:58:09.585Z</time>
</trkpt>
<trkpt lat="30.9729900" lon="34.9425600">
<ele>521.099976</ele>
<time>2021-12-02T20:58:09.585Z</time>
</trkpt>
<trkpt lat="30.9733200" lon="34.9424800">
<ele>522.039978</ele>
<time>2021-12-02T20:58:09.585Z</time>
</trkpt>
<trkpt lat="30.9735500" lon="34.9424500">
<ele>522.500000</ele>
<time>2021-12-02T20:58:09.585Z</time>
</trkpt>
<trkpt lat="30.9737200" lon="34.9424500">
<ele>524.359985</ele>
<time>2021-12-02T20:58:09.585Z</time>
</trkpt>
<trkpt lat="30.9738400" lon="34.9424400">
<ele>526.409973</ele>
<time>2021-12-02T20:58:09.585Z</time>
</trkpt>
<trkpt lat="30.9740500" lon="34.9424200">
<ele>528.369995</ele>
<time>2021-12-02T20:58:09.585Z</time>
</trkpt>
<trkpt lat="30.9741500" lon="34.9424200">
<ele>529.039978</ele>
<time>2021-12-02T20:58:09.585Z</time>
</trkpt>
<trkpt lat="30.9743000" lon="34.9424600">
<ele>527.619995</ele>
<time>2021-12-02T20:58:09.585Z</time>
</trkpt>
<trkpt lat="30.9745900" lon="34.9427000">
<ele>522.989990</ele>
<time>2021-12-02T20:58:09.585Z</time>
</trkpt>
<trkpt lat="30.9748900" lon="34.9428700">
<ele>520.200012</ele>
<time>2021-12-02T20:58:09.585Z</time>
</trkpt>
<trkpt lat="30.9753300" lon="34.9429500">
<ele>514.479980</ele>
<time>2021-12-02T20:58:09.585Z</time>
</trkpt>
<trkpt lat="30.9753900" lon="34.9429900">
<ele>513.880005</ele>
<time>2021-12-02T20:58:09.585Z</time>
</trkpt>
<trkpt lat="30.9754200" lon="34.9430300">
<ele>512.919983</ele>
<time>2021-12-02T20:58:09.585Z</time>
</trkpt>
<trkpt lat="30.9754600" lon="34.9431200">
<ele>512.549988</ele>
<time>2021-12-02T20:58:09.585Z</time>
</trkpt>
<trkpt lat="30.9754700" lon="34.9435400">
<ele>514.099976</ele>
<time>2021-12-02T20:58:09.585Z</time>
</trkpt>
<trkpt lat="30.9755300" lon="34.9438500">
<ele>518.510010</ele>
<time>2021-12-02T20:58:09.585Z</time>
</trkpt>
<trkpt lat="30.9756000" lon="34.9438900">
<ele>519.010010</ele>
<time>2021-12-02T20:58:09.585Z</time>
</trkpt>
<trkpt lat="30.9756700" lon="34.9439000">
<ele>519.119995</ele>
<time>2021-12-02T20:58:09.585Z</time>
</trkpt>
<trkpt lat="30.9757300" lon="34.9438900">
<ele>519.010010</ele>
<time>2021-12-02T20:58:09.585Z</time>
</trkpt>
<trkpt lat="30.9757800" lon="34.9438700">
<ele>519.000000</ele>
<time>2021-12-02T20:58:09.585Z</time>
</trkpt>
<trkpt lat="30.9764600" lon="34.9431200">
<ele>522.369995</ele>
<time>2021-12-02T20:58:09.585Z</time>
</trkpt>
<trkpt lat="30.9766800" lon="34.9429100">
<ele>517.760010</ele>
<time>2021-12-02T20:58:09.585Z</time>
</trkpt>
<trkpt lat="30.9767900" lon="34.9428300">
<ele>515.320007</ele>
<time>2021-12-02T20:58:09.585Z</time>
</trkpt>
<trkpt lat="30.9771000" lon="34.9427400">
<ele>512.700012</ele>
<time>2021-12-02T20:58:09.585Z</time>
</trkpt>
<trkpt lat="30.9771900" lon="34.9426800">
<ele>513.239990</ele>
<time>2021-12-02T20:58:09.585Z</time>
</trkpt>
<trkpt lat="30.9774400" lon="34.9424000">
<ele>511.660004</ele>
<time>2021-12-02T20:58:09.585Z</time>
</trkpt>
<trkpt lat="30.9775400" lon="34.9422700">
<ele>511.920013</ele>
<time>2021-12-02T20:58:09.585Z</time>
</trkpt>
<trkpt lat="30.9774400" lon="34.9420200">
<ele>514.280029</ele>
<time>2021-12-02T20:58:09.585Z</time>
</trkpt>
<trkpt lat="30.9773400" lon="34.9418500">
<ele>518.630005</ele>
<time>2021-12-02T20:58:09.585Z</time>
</trkpt>
<trkpt lat="30.9771900" lon="34.9417100">
<ele>523.780029</ele>
<time>2021-12-02T20:58:09.585Z</time>
</trkpt>
<trkpt lat="30.9769000" lon="34.9415800">
<ele>526.679993</ele>
<time>2021-12-02T20:58:09.585Z</time>
</trkpt>
<trkpt lat="30.9768500" lon="34.9415300">
<ele>526.989990</ele>
<time>2021-12-02T20:58:09.585Z</time>
</trkpt>
<trkpt lat="30.9767900" lon="34.9414400">
<ele>527.280029</ele>
<time>2021-12-02T20:58:09.585Z</time>
</trkpt>
<trkpt lat="30.9767400" lon="34.9412900">
<ele>527.170044</ele>
<time>2021-12-02T20:58:09.585Z</time>
</trkpt>
<trkpt lat="30.9767100" lon="34.9411300">
<ele>527.010010</ele>
<time>2021-12-02T20:58:09.585Z</time>
</trkpt>
<trkpt lat="30.9767000" lon="34.9408100">
<ele>524.470032</ele>
<time>2021-12-02T20:58:09.585Z</time>
</trkpt>
<trkpt lat="30.9766800" lon="34.9406600">
<ele>521.860046</ele>
<time>2021-12-02T20:58:09.585Z</time>
</trkpt>
<trkpt lat="30.9766300" lon="34.9405200">
<ele>519.420044</ele>
<time>2021-12-02T20:58:09.585Z</time>
</trkpt>
<trkpt lat="30.9764400" lon="34.9404700">
<ele>518.959961</ele>
<time>2021-12-02T20:58:09.585Z</time>
</trkpt>
<trkpt lat="30.9763600" lon="34.9404100">
<ele>518.849976</ele>
<time>2021-12-02T20:58:09.585Z</time>
</trkpt>
<trkpt lat="30.9762800" lon="34.9401300">
<ele>519.739990</ele>
<time>2021-12-02T20:58:09.585Z</time>
</trkpt>
<trkpt lat="30.9760700" lon="34.9396600">
<ele>520.230042</ele>
<time>2021-12-02T20:58:09.585Z</time>
</trkpt>
<trkpt lat="30.9760400" lon="34.9395500">
<ele>519.140015</ele>
<time>2021-12-02T20:58:09.585Z</time>
</trkpt>
<trkpt lat="30.9760300" lon="34.9394300">
<ele>518.149963</ele>
<time>2021-12-02T20:58:09.585Z</time>
</trkpt>
<trkpt lat="30.9760300" lon="34.9392500">
<ele>516.929993</ele>
<time>2021-12-02T20:58:09.585Z</time>
</trkpt>
<trkpt lat="30.9760600" lon="34.9390300">
<ele>515.559998</ele>
<time>2021-12-02T20:58:09.585Z</time>
</trkpt>
<trkpt lat="30.9761200" lon="34.9388300">
<ele>514.000000</ele>
<time>2021-12-02T20:58:09.585Z</time>
</trkpt>
<trkpt lat="30.9764200" lon="34.9382400">
<ele>510.720001</ele>
<time>2021-12-02T20:58:09.585Z</time>
</trkpt>
<trkpt lat="30.9764300" lon="34.9381200">
<ele>507.329987</ele>
<time>2021-12-02T20:58:09.585Z</time>
</trkpt>
<trkpt lat="30.9764200" lon="34.9378400">
<ele>499.819977</ele>
<time>2021-12-02T20:58:09.585Z</time>
</trkpt>
<trkpt lat="30.9764500" lon="34.9376700">
<ele>498.400024</ele>
<time>2021-12-02T20:58:09.585Z</time>
</trkpt>
<trkpt lat="30.9765800" lon="34.9374100">
<ele>497.259979</ele>
<time>2021-12-02T20:58:09.585Z</time>
</trkpt>
<trkpt lat="30.9766800" lon="34.9372800">
<ele>496.949982</ele>
<time>2021-12-02T20:58:09.585Z</time>
</trkpt>
<trkpt lat="30.9770400" lon="34.9368700">
<ele>503.119995</ele>
<time>2021-12-02T20:58:09.585Z</time>
</trkpt>
<trkpt lat="30.9771100" lon="34.9367600">
<ele>504.040009</ele>
<time>2021-12-02T20:58:09.585Z</time>
</trkpt>
<trkpt lat="30.9771000" lon="34.9365700">
<ele>501.529968</ele>
<time>2021-12-02T20:58:09.585Z</time>
</trkpt>
<trkpt lat="30.9770900" lon="34.9363100">
<ele>498.799988</ele>
<time>2021-12-02T20:58:09.585Z</time>
</trkpt>
<trkpt lat="30.9771000" lon="34.9361900">
<ele>499.239990</ele>
<time>2021-12-02T20:58:09.585Z</time>
</trkpt>
<trkpt lat="30.9771800" lon="34.9358700">
<ele>500.820007</ele>
<time>2021-12-02T20:58:09.585Z</time>
</trkpt>
<trkpt lat="30.9773000" lon="34.9355700">
<ele>504.099976</ele>
<time>2021-12-02T20:58:09.585Z</time>
</trkpt>
<trkpt lat="30.9773100" lon="34.9354900">
<ele>504.099976</ele>
<time>2021-12-02T20:58:09.585Z</time>
</trkpt>
<trkpt lat="30.9772700" lon="34.9353700">
<ele>503.130005</ele>
<time>2021-12-02T20:58:09.585Z</time>
</trkpt>
<trkpt lat="30.9772200" lon="34.9352100">
<ele>501.489990</ele>
<time>2021-12-02T20:58:09.585Z</time>
</trkpt>
<trkpt lat="30.9772100" lon="34.9349400">
<ele>500.429993</ele>
<time>2021-12-02T20:58:09.585Z</time>
</trkpt>
<trkpt lat="30.9772000" lon="34.9344800">
<ele>501.199982</ele>
<time>2021-12-02T20:58:09.585Z</time>
</trkpt>
<trkpt lat="30.9771800" lon="34.9343600">
<ele>502.460022</ele>
<time>2021-12-02T20:58:09.585Z</time>
</trkpt>
<trkpt lat="30.9771100" lon="34.9339600">
<ele>508.899994</ele>
<time>2021-12-02T20:58:09.585Z</time>
</trkpt>
<trkpt lat="30.9770800" lon="34.9338100">
<ele>510.589996</ele>
<time>2021-12-02T20:58:09.585Z</time>
</trkpt>
<trkpt lat="30.9770600" lon="34.9333600">
<ele>507.489990</ele>
<time>2021-12-02T20:58:09.585Z</time>
</trkpt>
<trkpt lat="30.9770200" lon="34.9329500">
<ele>505.739990</ele>
<time>2021-12-02T20:58:09.585Z</time>
</trkpt>
<trkpt lat="30.9769400" lon="34.9326600">
<ele>505.139984</ele>
<time>2021-12-02T20:58:09.585Z</time>
</trkpt>
<trkpt lat="30.9768800" lon="34.9325600">
<ele>504.199982</ele>
<time>2021-12-02T20:58:09.585Z</time>
</trkpt>
<trkpt lat="30.9767000" lon="34.9323200">
<ele>503.119995</ele>
<time>2021-12-02T20:58:09.585Z</time>
</trkpt>
<trkpt lat="30.9766900" lon="34.9322100">
<ele>503.079987</ele>
<time>2021-12-02T20:58:09.585Z</time>
</trkpt>
<trkpt lat="30.9766900" lon="34.9320900">
<ele>503.039978</ele>
<time>2021-12-02T20:58:09.585Z</time>
</trkpt>
<trkpt lat="30.9767000" lon="34.9320300">
<ele>503.039978</ele>
<time>2021-12-02T20:58:09.585Z</time>
</trkpt>
<trkpt lat="30.9768700" lon="34.9317400">
<ele>504.619995</ele>
<time>2021-12-02T20:58:09.585Z</time>
</trkpt>
<trkpt lat="30.9769300" lon="34.9316300">
<ele>506.239990</ele>
<time>2021-12-02T20:58:09.585Z</time>
</trkpt>
<trkpt lat="30.9769100" lon="34.9314900">
<ele>507.540009</ele>
<time>2021-12-02T20:58:09.585Z</time>
</trkpt>
<trkpt lat="30.9768800" lon="34.9314200">
<ele>507.970001</ele>
<time>2021-12-02T20:58:09.585Z</time>
</trkpt>
<trkpt lat="30.9766900" lon="34.9312700">
<ele>507.139984</ele>
<time>2021-12-02T20:58:09.585Z</time>
</trkpt>
<trkpt lat="30.9765400" lon="34.9310300">
<ele>507.090027</ele>
<time>2021-12-02T20:58:09.585Z</time>
</trkpt>
<trkpt lat="30.9764000" lon="34.9306900">
<ele>507.130005</ele>
<time>2021-12-02T20:58:09.585Z</time>
</trkpt>
<trkpt lat="30.9762100" lon="34.9302600">
<ele>512.530029</ele>
<time>2021-12-02T20:58:09.585Z</time>
</trkpt>
<trkpt lat="30.9761500" lon="34.9301600">
<ele>512.859985</ele>
<time>2021-12-02T20:58:09.585Z</time>
</trkpt>
<trkpt lat="30.9756800" lon="34.9298200">
<ele>509.520020</ele>
<time>2021-12-02T20:58:09.585Z</time>
</trkpt>
<trkpt lat="30.9754100" lon="34.9296000">
<ele>507.619995</ele>
<time>2021-12-02T20:58:09.585Z</time>
</trkpt>
<trkpt lat="30.9750200" lon="34.9291900">
<ele>501.429993</ele>
<time>2021-12-02T20:58:09.585Z</time>
</trkpt>
<trkpt lat="30.9749700" lon="34.9290700">
<ele>499.049988</ele>
<time>2021-12-02T20:58:09.585Z</time>
</trkpt>
<trkpt lat="30.9748100" lon="34.9284300">
<ele>496.909973</ele>
<time>2021-12-02T20:58:09.585Z</time>
</trkpt>
<trkpt lat="30.9746000" lon="34.9271800">
<ele>493.970001</ele>
<time>2021-12-02T20:58:09.585Z</time>
</trkpt>
<trkpt lat="30.9745800" lon="34.9270500">
<ele>493.359985</ele>
<time>2021-12-02T20:58:09.585Z</time>
</trkpt>
<trkpt lat="30.9745700" lon="34.9268400">
<ele>492.700012</ele>
<time>2021-12-02T20:58:09.585Z</time>
</trkpt>
<trkpt lat="30.9745600" lon="34.9265400">
<ele>491.340027</ele>
<time>2021-12-02T20:58:09.585Z</time>
</trkpt>
<trkpt lat="30.9745400" lon="34.9263600">
<ele>489.820007</ele>
<time>2021-12-02T20:58:09.585Z</time>
</trkpt>
<trkpt lat="30.9744300" lon="34.9256800">
<ele>489.600006</ele>
<time>2021-12-02T20:58:09.585Z</time>
</trkpt>
<trkpt lat="30.9744100" lon="34.9254900">
<ele>491.340027</ele>
<time>2021-12-02T20:58:09.585Z</time>
</trkpt>
<trkpt lat="30.9744200" lon="34.9247300">
<ele>485.300018</ele>
<time>2021-12-02T20:58:09.585Z</time>
</trkpt>
<trkpt lat="30.9744200" lon="34.9246400">
<ele>483.149994</ele>
<time>2021-12-02T20:58:09.585Z</time>
</trkpt>
<trkpt lat="30.9744200" lon="34.9243800">
<ele>478.110016</ele>
<time>2021-12-02T20:58:09.585Z</time>
</trkpt>
<trkpt lat="30.9745000" lon="34.9240700">
<ele>478.700012</ele>
<time>2021-12-02T20:58:09.585Z</time>
</trkpt>
<trkpt lat="30.9745700" lon="34.9239900">
<ele>479.730011</ele>
<time>2021-12-02T20:58:09.585Z</time>
</trkpt>
<trkpt lat="30.9746100" lon="34.9239300">
<ele>480.000000</ele>
<time>2021-12-02T20:58:09.585Z</time>
</trkpt>
<trkpt lat="30.9748300" lon="34.9234700">
<ele>480.819977</ele>
<time>2021-12-02T20:58:09.585Z</time>
</trkpt>
<trkpt lat="30.9748800" lon="34.9233600">
<ele>481.500000</ele>
<time>2021-12-02T20:58:09.585Z</time>
</trkpt>
<trkpt lat="30.9751700" lon="34.9228300">
<ele>481.600006</ele>
<time>2021-12-02T20:58:09.585Z</time>
</trkpt>
<trkpt lat="30.9755200" lon="34.9220100">
<ele>479.359985</ele>
<time>2021-12-02T20:58:09.585Z</time>
</trkpt>
<trkpt lat="30.9758500" lon="34.9213800">
<ele>476.119995</ele>
<time>2021-12-02T20:58:09.585Z</time>
</trkpt>
<trkpt lat="30.9760700" lon="34.9208800">
<ele>473.600006</ele>
<time>2021-12-02T20:58:09.585Z</time>
</trkpt>
<trkpt lat="30.9761900" lon="34.9206300">
<ele>471.080017</ele>
<time>2021-12-02T20:58:09.585Z</time>
</trkpt>
<trkpt lat="30.9765300" lon="34.9201600">
<ele>474.980011</ele>
<time>2021-12-02T20:58:09.585Z</time>
</trkpt>
<trkpt lat="30.9766700" lon="34.9199400">
<ele>477.720001</ele>
<time>2021-12-02T20:58:09.585Z</time>
</trkpt>
<trkpt lat="30.9770900" lon="34.9191000">
<ele>477.410004</ele>
<time>2021-12-02T20:58:09.585Z</time>
</trkpt>
<trkpt lat="30.9773000" lon="34.9185500">
<ele>472.739990</ele>
<time>2021-12-02T20:58:09.585Z</time>
</trkpt>
<trkpt lat="30.9773400" lon="34.9184800">
<ele>473.250000</ele>
<time>2021-12-02T20:58:09.585Z</time>
</trkpt>
<trkpt lat="30.9774300" lon="34.9181700">
<ele>472.769989</ele>
<time>2021-12-02T20:58:09.585Z</time>
</trkpt>
<trkpt lat="30.9774500" lon="34.9179000">
<ele>471.179993</ele>
<time>2021-12-02T20:58:09.585Z</time>
</trkpt>
<trkpt lat="30.9774800" lon="34.9174900">
<ele>469.959991</ele>
<time>2021-12-02T20:58:09.585Z</time>
</trkpt>
<trkpt lat="30.9774100" lon="34.9172300">
<ele>470.649994</ele>
<time>2021-12-02T20:58:09.585Z</time>
</trkpt>
<trkpt lat="30.9772000" lon="34.9171500">
<ele>470.839996</ele>
<time>2021-12-02T20:58:09.585Z</time>
</trkpt>
<trkpt lat="30.9770400" lon="34.9170000">
<ele>474.219971</ele>
<time>2021-12-02T20:58:09.585Z</time>
</trkpt>
<trkpt lat="30.9769600" lon="34.9167200">
<ele>475.100006</ele>
<time>2021-12-02T20:58:09.585Z</time>
</trkpt>
<trkpt lat="30.9769400" lon="34.9164800">
<ele>472.339996</ele>
<time>2021-12-02T20:58:09.585Z</time>
</trkpt>
<trkpt lat="30.9769400" lon="34.9162500">
<ele>470.530029</ele>
<time>2021-12-02T20:58:09.585Z</time>
</trkpt>
<trkpt lat="30.9770000" lon="34.9159800">
<ele>470.109985</ele>
<time>2021-12-02T20:58:09.585Z</time>
</trkpt>
<trkpt lat="30.9769300" lon="34.9157500">
<ele>469.750000</ele>
<time>2021-12-02T20:58:09.585Z</time>
</trkpt>
<trkpt lat="30.9768000" lon="34.9153600">
<ele>471.269989</ele>
<time>2021-12-02T20:58:09.585Z</time>
</trkpt>
<trkpt lat="30.9769000" lon="34.9152400">
<ele>471.789978</ele>
<time>2021-12-02T20:58:09.585Z</time>
</trkpt>
<trkpt lat="30.9776200" lon="34.9144600">
<ele>464.929993</ele>
<time>2021-12-02T20:58:09.585Z</time>
</trkpt>
<trkpt lat="30.9780100" lon="34.9132800">
<ele>466.550018</ele>
<time>2021-12-02T20:58:09.585Z</time>
</trkpt>
<trkpt lat="30.9781300" lon="34.9129700">
<ele>464.889984</ele>
<time>2021-12-02T20:58:09.585Z</time>
</trkpt>
<trkpt lat="30.9781500" lon="34.9129000">
<ele>464.419983</ele>
<time>2021-12-02T20:58:09.585Z</time>
</trkpt>
<trkpt lat="30.9781700" lon="34.9127900">
<ele>463.810028</ele>
<time>2021-12-02T20:58:09.585Z</time>
</trkpt>
<trkpt lat="30.9782100" lon="34.9123900">
<ele>458.790009</ele>
<time>2021-12-02T20:58:09.585Z</time>
</trkpt>
<trkpt lat="30.9782400" lon="34.9123600">
<ele>457.670013</ele>
<time>2021-12-02T20:58:09.585Z</time>
</trkpt>
<trkpt lat="30.9782800" lon="34.9123100">
<ele>455.710022</ele>
<time>2021-12-02T20:58:09.585Z</time>
</trkpt>
<trkpt lat="30.9786100" lon="34.9119100">
<ele>455.489990</ele>
<time>2021-12-02T20:58:09.585Z</time>
</trkpt>
<trkpt lat="30.9788600" lon="34.9112800">
<ele>461.220001</ele>
<time>2021-12-02T20:58:09.585Z</time>
</trkpt>
<trkpt lat="30.9791100" lon="34.9111200">
<ele>461.339996</ele>
<time>2021-12-02T20:58:09.585Z</time>
</trkpt>
<trkpt lat="30.9797100" lon="34.9108700">
<ele>459.530029</ele>
<time>2021-12-02T20:58:09.585Z</time>
</trkpt>
<trkpt lat="30.9801700" lon="34.9108400">
<ele>457.229980</ele>
<time>2021-12-02T20:58:09.585Z</time>
</trkpt>
<trkpt lat="30.9802400" lon="34.9108400">
<ele>456.989990</ele>
<time>2021-12-02T20:58:09.585Z</time>
</trkpt>
<trkpt lat="30.9811500" lon="34.9110400">
<ele>456.160004</ele>
<time>2021-12-02T20:58:09.585Z</time>
</trkpt>
<trkpt lat="30.9812100" lon="34.9110800">
<ele>454.080017</ele>
<time>2021-12-02T20:58:09.585Z</time>
</trkpt>
<trkpt lat="30.9813600" lon="34.9111000">
<ele>450.869995</ele>
<time>2021-12-02T20:58:09.585Z</time>
</trkpt>
<trkpt lat="30.9820800" lon="34.9111000">
<ele>450.119995</ele>
<time>2021-12-02T20:58:09.585Z</time>
</trkpt>
<trkpt lat="30.9823000" lon="34.9110900">
<ele>451.040009</ele>
<time>2021-12-02T20:58:09.585Z</time>
</trkpt>
<trkpt lat="30.9823700" lon="34.9110000">
<ele>450.589996</ele>
<time>2021-12-02T20:58:09.585Z</time>
</trkpt>
<trkpt lat="30.9825200" lon="34.9109600">
<ele>449.229980</ele>
<time>2021-12-02T20:58:09.585Z</time>
</trkpt>
<trkpt lat="30.9825800" lon="34.9109300">
<ele>448.870026</ele>
<time>2021-12-02T20:58:09.585Z</time>
</trkpt>
<trkpt lat="30.9834100" lon="34.9100200">
<ele>451.610016</ele>
<time>2021-12-02T20:58:09.585Z</time>
</trkpt>
<trkpt lat="30.9838500" lon="34.9094000">
<ele>451.899994</ele>
<time>2021-12-02T20:58:09.585Z</time>
</trkpt>
<trkpt lat="30.9839000" lon="34.9093600">
<ele>452.139984</ele>
<time>2021-12-02T20:58:09.585Z</time>
</trkpt>
<trkpt lat="30.9846800" lon="34.9088500">
<ele>450.509979</ele>
<time>2021-12-02T20:58:09.585Z</time>
</trkpt>
<trkpt lat="30.9849900" lon="34.9087700">
<ele>450.880005</ele>
<time>2021-12-02T20:58:09.585Z</time>
</trkpt>
<trkpt lat="30.9852100" lon="34.9087400">
<ele>449.910004</ele>
<time>2021-12-02T20:58:09.585Z</time>
</trkpt>
<trkpt lat="30.9854100" lon="34.9088000">
<ele>449.779999</ele>
<time>2021-12-02T20:58:09.585Z</time>
</trkpt>
<trkpt lat="30.9863700" lon="34.9092200">
<ele>465.269989</ele>
<time>2021-12-02T20:58:09.585Z</time>
</trkpt>
<trkpt lat="30.9865600" lon="34.9092900">
<ele>467.880005</ele>
<time>2021-12-02T20:58:09.585Z</time>
</trkpt>
<trkpt lat="30.9867700" lon="34.9092900">
<ele>469.500000</ele>
<time>2021-12-02T20:58:09.585Z</time>
</trkpt>
<trkpt lat="30.9870700" lon="34.9096500">
<ele>474.420013</ele>
<time>2021-12-02T20:58:09.585Z</time>
</trkpt>
<trkpt lat="30.9873500" lon="34.9099300">
<ele>475.329987</ele>
<time>2021-12-02T20:58:09.585Z</time>
</trkpt>
<trkpt lat="30.9874400" lon="34.9099900">
<ele>474.019989</ele>
<time>2021-12-02T20:58:09.585Z</time>
</trkpt>
<trkpt lat="30.9876700" lon="34.9101500">
<ele>470.870026</ele>
<time>2021-12-02T20:58:09.585Z</time>
</trkpt>
<trkpt lat="30.9893100" lon="34.9113100">
<ele>459.029999</ele>
<time>2021-12-02T20:58:09.585Z</time>
</trkpt>
<trkpt lat="30.9895400" lon="34.9115100">
<ele>454.470001</ele>
<time>2021-12-02T20:58:09.585Z</time>
</trkpt>
<trkpt lat="30.9895900" lon="34.9115600">
<ele>454.480011</ele>
<time>2021-12-02T20:58:09.585Z</time>
</trkpt>
<trkpt lat="30.9896400" lon="34.9116200">
<ele>454.500000</ele>
<time>2021-12-02T20:58:09.585Z</time>
</trkpt>
<trkpt lat="30.9897300" lon="34.9117200">
<ele>453.989990</ele>
<time>2021-12-02T20:58:09.585Z</time>
</trkpt>
<trkpt lat="30.9897600" lon="34.9117800">
<ele>453.940002</ele>
<time>2021-12-02T20:58:09.585Z</time>
</trkpt>
<trkpt lat="30.9898100" lon="34.9118600">
<ele>453.779999</ele>
<time>2021-12-02T20:58:09.585Z</time>
</trkpt>
<trkpt lat="30.9898500" lon="34.9118900">
<ele>453.629974</ele>
<time>2021-12-02T20:58:09.585Z</time>
</trkpt>
<trkpt lat="30.9898900" lon="34.9119100">
<ele>453.470001</ele>
<time>2021-12-02T20:58:09.585Z</time>
</trkpt>
<trkpt lat="30.9899500" lon="34.9119300">
<ele>453.220001</ele>
<time>2021-12-02T20:58:09.585Z</time>
</trkpt>
<trkpt lat="30.9899800" lon="34.9119400">
<ele>453.089996</ele>
<time>2021-12-02T20:58:09.585Z</time>
</trkpt>
<trkpt lat="30.9900200" lon="34.9119500">
<ele>453.190002</ele>
<time>2021-12-02T20:58:09.585Z</time>
</trkpt>
<trkpt lat="30.9900000" lon="34.9120600">
<ele>452.580017</ele>
<time>2021-12-02T20:58:09.585Z</time>
</trkpt>
<trkpt lat="30.9899700" lon="34.9122700">
<ele>452.540009</ele>
<time>2021-12-02T20:58:09.585Z</time>
</trkpt>
<trkpt lat="30.9899300" lon="34.9125000">
<ele>454.250000</ele>
<time>2021-12-02T20:58:09.585Z</time>
</trkpt>
<trkpt lat="30.9899200" lon="34.9125000">
<ele>454.290009</ele>
<time>2021-12-02T20:58:09.585Z</time>
</trkpt>
<trkpt lat="30.9899600" lon="34.9123100">
<ele>452.869995</ele>
<time>2021-12-02T20:58:09.585Z</time>
</trkpt>
<trkpt lat="30.9899500" lon="34.9123000">
<ele>452.869995</ele>
<time>2021-12-02T20:58:09.585Z</time>
</trkpt>
</trkseg>
</trk>
</gpx>
